                ,  0.284,  0.381,  0.478,  0.575,  0.672,  0.769,  0.866,  0.963,  1.060,  1.157,  1.254,  1.351,  1.448,  1.545,  1.642,  1.740,  1.837,  1.934,  2.031,  2.128,  2.225,  2.322,  2.419,  2.516,  2.613,  2.710,  2.807,  2.904,  3.001,  3.098,  3.195,  3.292,  3.389,  3.486,  3.583,  3.680,  3.777,  3.874,  3.971,  4.068,  4.165,  4.262,  4.359,  4.456,  4.553,  4.650,  4.747,  4.844,  4.941,  5.039,  5.136,  5.233,  5.330,  5.427,  5.524,  5.621,  5.718,  5.815,  5.912,  6.009,  6.106,  6.203,  6.300,  6.397,  6.494,  6.591,  6.688,  6.785,  6.882,  6.979,  7.076,  7.173,  7.270,  7.367,  7.464,  7.561,  7.658,  7.755,  7.852,  7.949,  8.046,  8.143,  8.240,  8.338,  8.435,  8.532,  8.629,  8.726,  8.823,  8.920,  9.017,  9.114,  9.211,  9.308,  9.405,  9.502,  9.599,  9.696
2010/05/31 00:00,   -0.1,   -0.2,   -0.1,    0.6,    1.8,    2.7,    2.3,    0.7,   -0.4,   -0.1,    0.5,    0.5,    0.6,    0.9,    1.7,    2.2,    1.8,    3.1,    3.2,    3.6,    3.5,    2.6,    1.8,  999.0,    2.9,    2.8,  999.0,    2.2,    2.6,    2.3,    1.3,    1.3,    1.3,   -0.0,    0.3,    0.7,    1.1,  999.0,    1.6,    0.9,    1.0,    1.0,    1.0,    1.4,    1.0,    0.7,    1.0,    0.7,    0.4,    0.5,  999.0,    0.4,  999.0,  999.0,  999.0,  999.0,  999.0,    0.1,    0.1,  999.0,  999.0,    2.5,    1.9,    1.6,  999.0,  999.0,  999.0,  999.0,  999.0,  999.0,  999.0,  999.0,  999.0,  999.0,  999.0,  999.0,  999.0,  999.0,  999.0,  999.0,  999.0,  999.0,  999.0,  999.0,  999.0,  999.0,  999.0,  999.0,  999.0,  999.0,  999.0,  999.0,  999.0,  999.0,  999.0,  999.0,  999.0,  999.0
2010/05/31 00:10,    0.3,    0.1,   -0.1,    1.4,    3.1,    2.6,    2.4,    0.6,   -0.0,    0.3,    0.3,    0.6,    0.6,    0.7,    1.3,    1.6,    1.2,    1.6,    2.2,    3.0,    3.3,    1.8,    2.3,  999.0,  999.0,    2.5,    2.6,    2.2,    2.6,    1.9,    1.5,    1.5,    1.4,    0.5,    0.6,    1.1,    1.1,    1.8,    2.0,    1.7,    1.4,    1.4,    1.4,    2.1,    2.1,    1.7,    2.1,    1.9,    1.0,    1.2,    1.3,  999.0,    1.9,  999.0,    0.7,  999.0,    1.2,  999.0,  999.0,  999.0,  999.0,    1.8,  999.0,    1.7,    1.7,  999.0,  999.0,  999.0,  999.0,  999.0,  999.0,  999.0,  999.0,  999.0,  999.0,  999.0,  999.0,  999.0,  999.0,  999.0,  999.0,  999.0,  999.0,  999.0,  999.0,  999.0,  999.0,  999.0,  999.0,  999.0,  999.0,  999.0,  999.0,  999.0,  999.0,  999.0,  999.0,  999.0
2010/05/31 00:20,    0.3,   -0.3,   -0.2,    1.9,    3.0,  999.0,    2.9,    0.4,   -0.2,    0.1,   -0.0,    0.2,    0.5,    0.7,    0.7,    0.4,    1.0,    1.4,    2.4,    2.2,    2.2,    1.3,    2.4,    2.8,    2.4,    2.6,    2.5,    2.5,    2.3,    1.7,    1.6,    1.2,    0.6,    0.3,    1.0,    1.4,  999.0,    1.7,    2.2,    2.3,    1.2,    1.6,    1.8,    2.1,    2.2,    2.3,    2.5,    2.5,    1.5,    1.6,    1.7,  999.0,  999.0,  999.0,    0.7,    0.7,    1.5,  999.0,    1.1,    1.0,    1.2,    1.6,    1.4,    0.8,  999.0,  999.0,  999.0,  999.0,  999.0,  999.0,  999.0,  999.0,  999.0,  999.0,  999.0,  999.0,  999.0,  999.0,  999.0,  999.0,  999.0,  999.0,  999.0,  999.0,  999.0,  999.0,  999.0,  999.0,  999.0,  999.0,  999.0,  999.0,  999.0,  999.0,  999.0,  999.0,  999.0,  999.0
2010/05/31 00:30,    0.4,   -0.1,    0.0,    0.1,    1.7,    2.7,    2.6,    0.6,    0.2,    0.1,    0.3,    0.6,    0.8,    0.5,    0.6,    0.3,    0.7,    1.3,    2.0,    1.9,    2.1,    1.5,    2.3,    2.8,    2.8,    2.6,    2.9,    3.2,    2.4,    2.0,    2.0,    1.4,    0.7,    0.9,    1.2,    1.0,    1.2,    1.4,    2.1,    1.8,    1.6,    2.0,    2.3,    2.7,    2.6,    2.7,    2.9,    2.7,    1.7,    2.0,  999.0,  999.0,  999.0,  999.0,    0.3,    1.0,    0.9,    1.1,    0.9,    1.5,    1.8,    1.8,    1.6,    1.0,  999.0,  999.0,  999.0,  999.0,  999.0,  999.0,  999.0,  999.0,  999.0,  999.0,  999.0,  999.0,  999.0,  999.0,  999.0,  999.0,  999.0,  999.0,  999.0,  999.0,  999.0,  999.0,  999.0,  999.0,  999.0,  999.0,  999.0,  999.0,  999.0,  999.0,  999.0,  999.0,  999.0,  999.0
2010/05/31 00:40,    0.2,    0.3,   -0.1,    1.3,    2.4,    2.6,    2.5,    0.7,    0.3,    0.3,    0.3,    0.5,    1.0,    0.8,    0.6,    0.2,    1.1,    1.9,    2.7,    2.6,    2.6,    1.8,    2.1,    1.7,    1.5,    0.8,    1.2,    1.8,    0.9,    1.0,    1.1,   -0.4,    0.1,    0.8,    1.5,  999.0,    1.0,    1.1,    1.5,    1.2,    1.4,    1.3,  999.0,    2.4,    2.5,    2.4,    2.3,    2.4,    2.4,    2.4,  999.0,  999.0,  999.0,    1.5,    0.9,    1.2,    1.0,    1.4,    0.3,    0.9,    1.1,    1.8,    1.7,    1.5,    0.9,   -0.0,  999.0,  999.0,  999.0,  999.0,  999.0,  999.0,  999.0,  999.0,  999.0,  999.0,  999.0,  999.0,  999.0,  999.0,  999.0,  999.0,  999.0,  999.0,  999.0,  999.0,  999.0,  999.0,  999.0,  999.0,  999.0,  999.0,  999.0,  999.0,  999.0,  999.0,  999.0,  999.0
2010/05/31 00:50,   -0.2,  999.0,    0.1,    0.9,    2.2,  999.0,    1.5,    0.4,    0.7,    1.0,    1.1,    1.1,    1.0,    1.1,    1.2,    0.0,    1.0,    1.7,    2.4,    2.1,    2.0,    1.7,    2.0,    1.7,    0.7,    0.6,    0.4,    0.3,   -0.0,    0.0,   -0.1,   -0.3,   -0.5,    0.5,    1.1,    1.6,    1.3,    1.2,    1.4,    1.3,    1.2,    1.7,    2.7,    2.7,    3.1,    3.5,    3.3,    3.1,    2.8,    2.5,    2.8,  999.0,    1.0,    2.2,    1.3,    1.3,    1.2,    1.7,    1.1,    0.7,    1.2,    1.9,    2.1,    1.4,  999.0,  999.0,  999.0,  999.0,  999.0,  999.0,  999.0,  999.0,  999.0,  999.0,  999.0,  999.0,  999.0,  999.0,  999.0,  999.0,  999.0,  999.0,  999.0,  999.0,  999.0,  999.0,  999.0,  999.0,  999.0,  999.0,  999.0,  999.0,  999.0,  999.0,  999.0,  999.0,  999.0,  999.0
2010/05/31 01:00,    0.3,  999.0,  999.0,    1.1,    2.8,    2.9,    1.7,    0.8,    0.9,    0.7,    0.8,    0.8,    0.5,    0.3,    0.1,    1.1,    1.8,    2.4,    2.8,    2.6,    2.1,    2.2,    2.2,    1.8,    1.5,    1.6,    1.2,    1.5,    0.8,    1.3,    1.6,   -0.0,   -0.3,    1.0,    1.6,    1.9,  999.0,  999.0,    2.0,  999.0,    1.9,    2.4,  999.0,    2.8,    3.3,    3.7,    3.5,    3.5,    3.5,    3.5,  999.0,  999.0,    3.2,    2.3,  999.0,  999.0,    1.7,    1.4,    1.3,    0.9,    1.2,    2.1,    2.1,    1.4,    0.9,  999.0,  999.0,  999.0,  999.0,  999.0,  999.0,  999.0,  999.0,  999.0,  999.0,  999.0,  999.0,  999.0,  999.0,  999.0,  999.0,  999.0,  999.0,  999.0,  999.0,  999.0,  999.0,  999.0,  999.0,  999.0,  999.0,  999.0,  999.0,  999.0,  999.0,  999.0,  999.0,  999.0
2010/05/31 01:10,    0.6,    0.2,   -0.1,    0.7,    2.3,    2.4,    1.8,    0.5,    0.7,    0.8,    1.0,    1.2,    0.9,    0.7,    0.2,    0.6,    1.0,    1.8,    2.3,    2.0,    1.6,    1.8,    1.5,  999.0,    1.8,    1.4,    1.5,    1.8,    2.2,    1.9,    2.0,    1.6,    1.1,    1.3,    1.7,    2.1,  999.0,  999.0,    1.4,  999.0,    1.5,    2.0,  999.0,    2.3,    2.6,    2.9,    3.0,    3.1,    3.1,    3.3,  999.0,  999.0,    2.6,    2.1,    1.9,    1.1,    1.6,    1.1,    0.4,    0.5,    0.9,    1.5,    1.9,    2.1,    1.2,    0.2,  999.0,  999.0,  999.0,  999.0,  999.0,  999.0,  999.0,  999.0,  999.0,  999.0,  999.0,  999.0,  999.0,  999.0,  999.0,  999.0,  999.0,  999.0,  999.0,  999.0,  999.0,  999.0,  999.0,  999.0,  999.0,  999.0,  999.0,  999.0,  999.0,  999.0,  999.0,  999.0
2010/05/31 01:20,    0.3,   -0.2,   -0.2,    0.2,    1.6,  999.0,    1.7,    0.0,   -0.0,    0.1,    0.3,    0.2,    0.2,   -0.2,   -0.6,    0.3,    0.8,    1.5,    1.4,    1.1,    1.2,    0.9,    1.1,    1.5,    1.4,    1.5,    1.8,    2.0,    2.4,    2.5,    2.2,    1.8,    0.9,    1.0,    1.3,    1.7,  999.0,    1.3,    1.8,  999.0,    1.9,    1.8,    2.8,    2.2,    2.3,    2.7,    3.0,  999.0,    3.0,    3.2,    2.7,    3.1,    1.8,    2.1,    1.8,    1.2,    1.4,    0.8,    0.5,    0.5,    0.9,    1.3,    1.6,    1.4,    0.8,    0.2,  999.0,   -0.5,  999.0,  999.0,  999.0,  999.0,  999.0,  999.0,  999.0,  999.0,  999.0,  999.0,  999.0,  999.0,  999.0,  999.0,  999.0,  999.0,  999.0,  999.0,  999.0,  999.0,  999.0,  999.0,  999.0,  999.0,  999.0,  999.0,  999.0,  999.0,  999.0,  999.0
2010/05/31 01:30,    0.3,    0.1,   -0.1,    1.1,    2.2,    2.4,    1.7,   -0.1,   -0.6,   -0.3,   -0.2,   -0.2,   -0.2,   -0.5,   -0.9,   -0.4,   -0.1,    0.3,    0.8,    0.5,    0.3,    0.1,    0.5,    0.5,    0.7,    1.1,    1.4,    1.8,    2.2,    2.3,    1.6,    0.8,    0.8,    1.4,    2.2,  999.0,  999.0,    2.6,    3.2,    3.4,    3.2,    3.4,    3.8,    3.4,    3.3,    3.7,    4.1,    4.2,    3.8,    2.5,    3.5,    2.8,    1.8,    1.6,    1.3,  999.0,    1.1,    1.2,    0.5,    1.0,    1.4,    2.0,    2.2,    2.2,  999.0,  999.0,    2.2,    2.4,    2.5,  999.0,  999.0,  999.0,  999.0,  999.0,  999.0,  999.0,  999.0,  999.0,  999.0,  999.0,  999.0,  999.0,  999.0,  999.0,  999.0,  999.0,  999.0,  999.0,  999.0,  999.0,  999.0,  999.0,  999.0,  999.0,  999.0,  999.0,  999.0,  999.0
2010/05/31 01:40,    0.0,   -0.7,   -0.1,    1.3,  999.0,  999.0,    2.7,    1.0,    0.7,    0.5,    0.4,    0.6,    0.1,   -0.5,   -1.1,   -0.8,   -0.5,    0.1,    0.6,    0.5,    0.1,    0.2,    0.6,    0.3,    0.4,    0.5,    0.6,    0.8,    1.1,    0.8,    0.8,    0.3,    0.7,    1.6,    2.5,    3.1,    2.7,    3.2,    3.9,    4.1,    3.8,    3.7,    4.0,    3.0,    2.9,    3.1,    3.6,    3.8,    3.3,    2.9,    3.1,    3.2,    3.1,    2.0,    1.2,    1.2,    1.0,    0.7,    0.2,    0.6,    0.8,    1.0,    1.3,    1.6,    1.9,  999.0,  999.0,  999.0,  999.0,  999.0,  999.0,  999.0,  999.0,  999.0,  999.0,  999.0,  999.0,  999.0,  999.0,  999.0,  999.0,  999.0,  999.0,  999.0,  999.0,  999.0,  999.0,  999.0,  999.0,  999.0,  999.0,  999.0,  999.0,  999.0,  999.0,  999.0,  999.0,  999.0
2010/05/31 01:50,    0.1,   -0.5,   -0.3,    1.1,    2.3,  999.0,    2.0,    1.3,    0.5,    0.0,   -0.2,    0.4,    0.1,   -0.1,   -0.5,   -0.4,   -0.0,    0.7,    1.3,    1.1,    0.8,    0.9,    1.2,    0.9,    0.7,    0.5,    0.7,    0.7,    0.7,    0.9,    0.4,    0.2,    0.2,    1.1,    1.7,    2.2,    2.3,    3.4,    4.0,    3.5,    3.4,    3.6,    3.3,    2.9,    2.9,    3.2,    3.5,    3.5,    3.5,    3.0,    2.9,    3.0,    2.6,    2.5,  999.0,    0.9,    1.1,    1.1,  999.0,    0.4,    0.6,    1.7,  999.0,    0.9,    1.4,    1.9,    2.0,  999.0,  999.0,  999.0,  999.0,  999.0,  999.0,  999.0,  999.0,  999.0,  999.0,  999.0,  999.0,  999.0,  999.0,  999.0,  999.0,  999.0,  999.0,  999.0,  999.0,  999.0,  999.0,  999.0,  999.0,  999.0,  999.0,  999.0,  999.0,  999.0,  999.0,  999.0
2010/05/31 02:00,   -0.4,   -1.4,   -0.1,   -0.2,    1.7,  999.0,  999.0,    1.9,    0.9,    0.6,    0.4,    1.1,    1.3,    0.5,    0.6,    0.3,    0.7,    0.8,    1.3,    0.9,    0.6,    0.6,    0.2,    0.0,   -0.4,   -0.2,    0.4,    0.0,   -0.3,   -0.1,   -0.5,   -0.6,   -0.2,    0.2,    1.0,    1.6,    1.5,    2.2,    2.8,    1.7,    2.5,    2.5,    2.3,    2.0,    2.0,    2.4,    2.8,    3.1,    1.4,    2.3,    3.0,    2.9,    2.7,    2.1,  999.0,    0.7,    0.9,    0.7,    0.4,    0.4,    0.2,  999.0,  999.0,    1.5,    1.7,    1.9,  999.0,  999.0,  999.0,  999.0,  999.0,  999.0,  999.0,  999.0,  999.0,  999.0,  999.0,  999.0,  999.0,  999.0,  999.0,  999.0,  999.0,  999.0,  999.0,  999.0,  999.0,  999.0,  999.0,  999.0,  999.0,  999.0,  999.0,  999.0,  999.0,  999.0,  999.0,  999.0
2010/05/31 02:10,   -1.0,   -1.8,   -0.9,    0.1,    2.5,  999.0,  999.0,    2.2,    0.3,   -0.0,   -0.4,    0.2,    0.6,    0.7,    0.6,    0.5,    1.0,    1.4,    1.9,    1.6,    1.2,    0.8,    0.8,    0.3,    0.2,    0.2,    0.1,    0.3,   -0.1,    0.3,    0.1,   -0.0,    0.0,    0.2,    0.6,    1.0,    1.1,    1.4,    2.0,    2.4,    2.8,    2.8,    2.6,    2.1,    2.0,    2.0,    2.5,    1.9,    1.3,    1.7,    2.7,    2.0,    2.9,    2.1,    1.3,    0.5,    0.9,    0.9,    0.7,    0.3,    0.5,  999.0,  999.0,    1.3,    1.4,    1.0,    1.3,    1.1,  999.0,  999.0,  999.0,  999.0,  999.0,  999.0,  999.0,  999.0,  999.0,  999.0,  999.0,  999.0,  999.0,  999.0,  999.0,  999.0,  999.0,  999.0,  999.0,  999.0,  999.0,  999.0,  999.0,  999.0,  999.0,  999.0,  999.0,  999.0,  999.0,  999.0
2010/05/31 02:20,   -1.9,   -2.4,   -1.8,    0.3,    1.8,  999.0,  999.0,    1.3,   -0.2,   -0.6,   -0.5,   -0.2,   -0.0,    0.1,    0.5,    0.3,    0.7,    1.1,    1.6,    1.3,    0.7,    0.8,    1.0,    0.0,    0.1,    0.5,    0.8,    0.9,    0.9,    1.0,    0.8,    0.7,    0.5,    0.8,    0.7,    1.0,    0.3,    1.1,    1.8,    2.6,    2.7,    2.9,    3.0,    2.7,    1.8,    1.6,    2.7,    2.4,    1.0,    0.9,    0.7,    0.4,    0.3,    0.5,    0.5,    0.2,    0.4,    0.8,    1.0,    0.7,    0.6,    1.1,  999.0,  999.0,  999.0,  999.0,    1.1,    0.3,    0.1,    0.5,  999.0,  999.0,  999.0,  999.0,  999.0,  999.0,  999.0,  999.0,  999.0,  999.0,  999.0,  999.0,  999.0,  999.0,  999.0,  999.0,  999.0,  999.0,  999.0,  999.0,  999.0,  999.0,  999.0,  999.0,  999.0,  999.0,  999.0,  999.0
2010/05/31 02:30,   -2.6,   -2.7,   -1.8,  999.0,  999.0,  999.0,  999.0,    0.8,   -0.6,   -0.5,   -0.5,  999.0,    0.3,    0.5,    0.2,    0.8,    1.3,    1.5,    1.8,    1.7,    1.4,    1.2,    1.5,    0.3,    0.7,    1.1,    1.3,    1.8,    1.8,    1.4,    1.1,    0.8,    0.7,    0.8,    0.8,    0.9,    0.8,    1.5,    2.0,    2.1,    2.3,    2.9,    2.7,    2.2,    1.8,    1.9,    2.2,    0.9,    1.0,    0.7,    0.7,    0.3,    0.3,    0.6,   -0.1,   -0.2,   -0.1,    0.0,   -0.0,   -0.2,   -0.1,    0.4,  999.0,  999.0,  999.0,    0.4,    0.4,    0.0,   -0.3,  999.0,  999.0,  999.0,  999.0,  999.0,  999.0,  999.0,  999.0,  999.0,  999.0,  999.0,  999.0,  999.0,  999.0,  999.0,  999.0,  999.0,  999.0,  999.0,  999.0,  999.0,  999.0,  999.0,  999.0,  999.0,  999.0,  999.0,  999.0,  999.0
2010/05/31 02:40,   -2.6,   -3.1,   -1.7,   -0.6,  999.0,    1.5,    2.0,    0.8,   -0.1,   -0.2,   -0.1,    0.3,    0.6,   -0.0,    0.6,    0.6,    1.3,    1.8,    2.0,    1.9,    1.6,    1.7,    1.8,  999.0,    1.2,    1.8,    2.1,    2.1,    2.1,    1.8,    1.3,    1.1,    1.0,    0.7,    1.2,    1.1,    1.2,    1.9,    2.0,    2.3,    2.8,    3.2,    2.9,    2.4,    1.8,    0.9,    1.5,    1.3,    0.9,    0.3,    0.4,    0.1,    0.3,    0.1,    0.2,   -0.2,   -0.6,   -0.2,   -0.1,   -0.4,   -0.2,    0.1,    0.6,  999.0,   -0.5,   -0.9,   -1.2,   -1.2,   -1.6,  999.0,  999.0,  999.0,  999.0,  999.0,  999.0,  999.0,  999.0,  999.0,  999.0,  999.0,  999.0,  999.0,  999.0,  999.0,  999.0,  999.0,  999.0,  999.0,  999.0,  999.0,  999.0,  999.0,  999.0,  999.0,  999.0,  999.0,  999.0,  999.0
2010/05/31 02:50,   -2.6,   -3.2,   -2.0,   -1.1,   -0.6,    0.2,    1.0,    0.4,   -0.3,    0.1,    0.1,    0.5,    0.6,    0.2,    0.4,    0.4,    0.6,    1.6,    2.0,    1.8,    1.6,    1.8,    1.9,    1.6,    1.9,    2.1,    2.3,    2.4,    2.6,    2.1,    1.6,    1.5,    1.1,    1.6,    1.6,    1.6,    1.9,    2.0,    2.1,    2.5,    3.0,    3.3,    2.5,    2.7,    2.2,    2.1,    2.2,    1.7,    1.1,    0.8,    1.9,    0.5,    0.3,    0.1,   -0.0,    0.2,   -0.1,   -0.4,    0.1,    0.2,    0.7,  999.0,  999.0,  999.0,  999.0,    0.1,   -0.7,   -0.3,   -1.4,   -1.8,  999.0,  999.0,  999.0,  999.0,  999.0,  999.0,  999.0,  999.0,  999.0,  999.0,  999.0,  999.0,  999.0,  999.0,  999.0,  999.0,  999.0,  999.0,  999.0,  999.0,  999.0,  999.0,  999.0,  999.0,  999.0,  999.0,  999.0,  999.0
2010/05/31 03:00,   -3.4,   -3.9,   -2.8,   -1.8,   -1.5,   -1.0,   -0.3,   -0.6,   -0.5,   -0.3,    0.1,    0.2,   -0.2,    0.1,    0.2,    0.7,    0.9,    1.7,    1.9,    1.8,    1.6,    2.1,    1.6,  999.0,    1.7,    1.9,    2.3,    2.4,    2.6,    1.1,    1.2,    0.7,    0.9,    1.2,    1.5,    2.0,    2.5,    2.3,    2.1,    2.2,    2.4,    2.9,    2.9,    2.7,    2.3,    2.4,    2.8,    1.5,    1.3,    1.3,    1.2,    0.7,    0.2,    0.3,    0.0,   -0.0,   -0.2,   -0.1,   -0.1,    0.2,    0.2,    0.2,    0.1,    0.3,  999.0,    0.4,    0.5,  999.0,  999.0,  999.0,  999.0,  999.0,  999.0,  999.0,  999.0,  999.0,  999.0,  999.0,  999.0,  999.0,  999.0,  999.0,  999.0,  999.0,  999.0,  999.0,  999.0,  999.0,  999.0,  999.0,  999.0,  999.0,  999.0,  999.0,  999.0,  999.0,  999.0,  999.0
2010/05/31 03:10,   -2.7,   -3.1,   -2.7,   -2.3,   -1.1,   -1.0,   -1.3,   -1.6,   -0.7,   -0.4,    0.4,    0.6,    0.1,   -0.1,   -0.0,    0.2,    0.3,    0.7,    1.1,    0.9,    0.8,    1.0,    0.7,  999.0,    1.3,    1.0,    1.6,    1.5,    1.2,    0.7,    0.6,    0.2,    0.6,    1.0,    1.5,    1.7,    1.8,    2.0,    2.2,    1.8,    2.1,    2.2,    2.5,    2.7,    2.4,    2.7,    3.0,    2.4,    1.9,    2.5,    1.9,    1.0,    0.4,    0.4,    0.2,   -0.0,   -0.0,   -0.1,   -0.2,    0.1,    0.5,    0.5,  999.0,  999.0,    0.3,    0.6,  999.0,  999.0,  999.0,  999.0,  999.0,  999.0,  999.0,  999.0,  999.0,  999.0,  999.0,  999.0,  999.0,  999.0,  999.0,  999.0,  999.0,  999.0,  999.0,  999.0,  999.0,  999.0,  999.0,  999.0,  999.0,  999.0,  999.0,  999.0,  999.0,  999.0,  999.0,  999.0
2010/05/31 03:20,   -2.2,   -3.1,   -2.7,   -2.3,   -1.5,   -1.0,   -1.6,   -1.6,   -0.5,    0.1,    0.1,    0.2,   -0.0,    0.2,    0.3,    0.4,    1.0,    1.1,    1.3,    1.2,    0.8,    0.9,    1.1,    0.6,    1.0,    1.2,    1.2,    1.4,    1.2,    0.9,    0.9,    0.9,    1.4,    1.9,    1.5,    2.1,    1.4,    1.8,    2.3,    1.9,    2.2,    2.8,    2.8,    2.9,    2.4,    2.8,    3.1,    3.6,    4.0,    3.6,    3.1,    1.5,    0.8,    0.9,    0.9,    0.7,    0.2,    0.3,    0.2,    0.4,    0.6,  999.0,    0.9,    0.5,    0.1,  999.0,  999.0,  999.0,  999.0,  999.0,  999.0,  999.0,  999.0,  999.0,  999.0,  999.0,  999.0,  999.0,  999.0,  999.0,  999.0,  999.0,  999.0,  999.0,  999.0,  999.0,  999.0,  999.0,  999.0,  999.0,  999.0,  999.0,  999.0,  999.0,  999.0,  999.0,  999.0,  999.0
2010/05/31 03:30,   -2.0,   -2.8,   -2.6,   -1.8,   -1.2,   -0.8,   -0.9,   -0.9,   -0.3,    0.3,    0.3,    0.1,    0.1,    0.2,    0.8,    1.1,    1.6,    1.4,    1.3,    0.9,    0.8,    0.7,    0.8,   -0.2,   -0.1,    0.9,    0.8,    1.2,    1.2,    0.8,    0.7,    0.7,    0.8,    1.1,    0.6,   -0.3,    0.5,    0.8,    1.5,    1.7,    2.3,    2.5,    2.8,    2.8,    2.3,    2.7,    2.8,    3.5,    3.3,    2.2,    1.8,    0.6,   -0.1,   -0.2,    0.1,    0.0,   -0.3,   -0.4,   -0.1,   -0.1,   -0.0,  999.0,    0.1,    0.3,   -0.0,   -0.3,  999.0,    0.4,   -0.9,  999.0,  999.0,  999.0,  999.0,  999.0,  999.0,  999.0,  999.0,  999.0,  999.0,  999.0,  999.0,  999.0,  999.0,  999.0,  999.0,  999.0,  999.0,  999.0,  999.0,  999.0,  999.0,  999.0,  999.0,  999.0,  999.0,  999.0,  999.0,  999.0
2010/05/31 03:40,   -0.8,   -1.9,   -1.9,   -1.2,   -0.7,   -0.6,   -0.7,   -0.2,   -0.3,    0.2,    0.3,   -0.2,   -0.1,    0.0,    0.2,    0.3,    0.6,    0.7,    1.0,    0.9,    0.9,    0.3,    0.4,   -0.6,   -0.6,    0.3,    0.5,    0.9,    0.9,    0.4,    0.4,    0.8,    0.6,    0.6,   -0.0,    0.6,    1.5,    1.5,    1.5,    1.5,    1.9,    2.3,    2.4,    2.4,    2.4,    2.5,    2.6,    3.1,    3.6,    2.8,    2.2,    1.2,    0.4,   -0.6,   -0.8,   -0.8,   -0.6,   -0.1,    0.1,   -0.2,    0.3,    0.2,    0.4,    0.4,    0.7,  999.0,  999.0,    0.1,   -1.0,  999.0,  999.0,  999.0,  999.0,  999.0,  999.0,  999.0,  999.0,  999.0,  999.0,  999.0,  999.0,  999.0,  999.0,  999.0,  999.0,  999.0,  999.0,  999.0,  999.0,  999.0,  999.0,  999.0,  999.0,  999.0,  999.0,  999.0,  999.0,  999.0
2010/05/31 03:50,   -0.0,   -0.6,   -1.6,  999.0,  999.0,   -0.4,   -0.3,    0.3,    0.1,    0.1,    0.1,    0.0,    0.2,    0.2,    0.1,    0.0,    0.1,    0.2,    0.4,    0.4,    0.6,    0.4,    0.3,   -0.6,   -0.2,    0.4,    0.9,    0.9,    0.6,    0.2,    0.1,    0.6,    1.1,    1.2,    0.1,    1.5,    2.4,    2.5,    2.4,    2.2,    2.2,    2.2,    2.4,    2.6,    2.5,    3.2,    3.6,    4.3,    4.2,    3.7,    3.2,    2.4,    1.5,    0.6,   -0.0,    0.1,    0.5,    0.8,    1.0,    0.6,    0.5,    1.2,    1.8,    1.7,    1.3,  999.0,    0.4,   -0.2,  999.0,  999.0,  999.0,  999.0,  999.0,  999.0,  999.0,  999.0,  999.0,  999.0,  999.0,  999.0,  999.0,  999.0,  999.0,  999.0,  999.0,  999.0,  999.0,  999.0,  999.0,  999.0,  999.0,  999.0,  999.0,  999.0,  999.0,  999.0,  999.0,  999.0
2010/05/31 04:00,    0.3,   -0.7,   -0.9,   -0.7,   -0.5,    0.1,   -0.0,    0.1,    0.0,    0.3,    0.1,    0.1,    0.3,    0.6,    0.5,    0.3,   -0.1,    0.2,    0.0,   -0.1,   -0.1,   -0.3,   -0.5,   -1.3,   -0.8,   -0.3,    0.2,    0.5,    0.2,   -0.4,   -0.1,   -0.1,    0.0,   -0.3,   -0.1,    0.5,    2.6,    3.8,    3.2,    2.6,    2.1,    2.1,    2.7,    2.9,    2.4,    3.1,    3.6,    3.7,    3.3,    3.1,    2.7,    2.1,    1.4,    1.2,    1.1,    0.8,    1.1,    1.2,    1.8,  999.0,    1.3,    1.5,    2.0,    1.7,  999.0,  999.0,   -0.0,   -0.6,  999.0,  999.0,  999.0,  999.0,  999.0,  999.0,  999.0,  999.0,  999.0,  999.0,  999.0,  999.0,  999.0,  999.0,  999.0,  999.0,  999.0,  999.0,  999.0,  999.0,  999.0,  999.0,  999.0,  999.0,  999.0,  999.0,  999.0,  999.0,  999.0,  999.0
2010/05/31 04:10,    0.5,   -0.1,   -0.6,   -0.4,   -0.3,   -0.2,    0.5,    0.9,    0.7,    0.4,    0.1,    0.0,    0.5,    1.1,    1.2,    1.1,    0.4,    0.1,    0.1,   -0.6,   -0.9,   -0.9,   -1.4,   -2.6,   -2.2,   -1.3,   -0.7,   -0.0,   -0.1,   -0.3,   -0.1,   -0.0,    0.1,    0.3,    1.2,    1.7,    3.0,    3.4,    2.5,    1.8,    1.6,    1.8,    1.6,    2.8,    4.1,    4.0,    4.3,    3.8,    3.2,    3.3,    3.1,    2.9,    2.3,    1.9,    1.9,    1.9,    1.9,    2.0,    2.2,    2.1,    1.6,    2.9,    2.8,    2.3,  999.0,  999.0,  999.0,  999.0,  999.0,  999.0,  999.0,  999.0,  999.0,  999.0,  999.0,  999.0,  999.0,  999.0,  999.0,  999.0,  999.0,  999.0,  999.0,  999.0,  999.0,  999.0,  999.0,  999.0,  999.0,  999.0,  999.0,  999.0,  999.0,  999.0,  999.0,  999.0,  999.0,  999.0
2010/05/31 04:20,    1.2,    0.5,    0.1,    0.3,    0.3,    0.6,    1.0,    1.1,    0.9,    0.5,    0.5,    0.7,    1.2,    0.6,    0.6,    0.5,    0.4,   -0.0,   -0.2,   -0.2,   -0.6,   -0.3,   -0.9,   -2.0,   -2.3,   -1.7,   -1.4,   -0.7,   -0.6,   -1.0,   -0.9,   -0.5,   -0.4,    0.3,    0.6,    1.9,    2.4,    3.0,    2.3,    1.6,    0.8,    1.0,    1.1,    2.3,    3.1,    3.9,    3.9,    3.5,    2.6,    2.9,    2.9,    2.2,    2.3,    1.1,    1.3,    1.6,    1.5,    1.6,    2.0,    2.2,    2.8,    3.3,    3.1,    1.7,  999.0,  999.0,  999.0,  999.0,  999.0,  999.0,  999.0,  999.0,  999.0,  999.0,  999.0,  999.0,  999.0,  999.0,  999.0,  999.0,  999.0,  999.0,  999.0,  999.0,  999.0,  999.0,  999.0,  999.0,  999.0,  999.0,  999.0,  999.0,  999.0,  999.0,  999.0,  999.0,  999.0,  999.0
2010/05/31 04:30,    2.3,    1.4,    0.9,    0.5,    0.9,    1.2,    1.2,    1.2,    1.0,    0.7,    0.5,    0.6,    1.2,    0.5,    1.3,    1.0,    0.5,    0.1,   -0.1,   -0.6,   -0.8,   -1.0,   -1.0,   -2.1,   -2.6,   -1.6,   -1.5,   -1.1,   -0.8,   -1.6,   -1.3,   -1.2,   -1.2,   -0.3,    0.2,    0.7,    1.9,    2.1,    1.1,    0.8,    0.6,    1.0,    1.5,    1.9,    1.7,    3.0,  999.0,    1.6,    2.6,    2.7,    3.2,    2.1,    1.9,    2.0,    2.4,    1.9,    2.0,    2.4,    2.9,    3.5,    3.5,    3.2,    2.8,    2.0,    1.6,  999.0,  999.0,  999.0,  999.0,  999.0,  999.0,  999.0,  999.0,  999.0,  999.0,  999.0,  999.0,  999.0,  999.0,  999.0,  999.0,  999.0,  999.0,  999.0,  999.0,  999.0,  999.0,  999.0,  999.0,  999.0,  999.0,  999.0,  999.0,  999.0,  999.0,  999.0,  999.0,  999.0
2010/05/31 04:40,    2.3,    1.4,    1.5,    0.8,    1.2,    1.4,    1.4,  999.0,    0.6,    0.6,  999.0,    0.4,    0.2,    0.4,    0.5,    0.3,    0.0,   -0.5,   -0.8,   -1.5,   -2.1,   -2.4,   -2.8,   -2.8,   -2.6,   -1.6,   -1.4,   -1.1,   -0.8,   -1.2,   -1.2,   -0.8,   -0.6,    0.4,    0.9,    1.3,    1.9,    2.1,    1.6,    1.3,    1.7,    1.9,    2.4,    2.0,    2.3,    2.8,    3.4,    3.9,    3.2,    3.8,    3.6,    2.9,    2.4,    2.3,    2.5,    1.9,    2.3,    3.0,    3.7,    4.2,    3.8,    3.6,    2.5,    2.1,    1.4,  999.0,  999.0,  999.0,  999.0,  999.0,  999.0,  999.0,  999.0,  999.0,  999.0,  999.0,  999.0,  999.0,  999.0,  999.0,  999.0,  999.0,  999.0,  999.0,  999.0,  999.0,  999.0,  999.0,  999.0,  999.0,  999.0,  999.0,  999.0,  999.0,  999.0,  999.0,  999.0,  999.0
2010/05/31 04:50,    2.4,    1.2,    1.3,  999.0,  999.0,    1.7,    2.0,    1.4,    0.4,    0.2,    0.4,    0.2,    0.2,    0.1,    0.3,    0.3,   -0.4,   -0.5,   -1.2,   -2.1,   -2.3,   -2.7,   -2.5,   -2.2,   -1.9,   -1.3,   -0.7,   -0.2,   -0.0,   -1.1,   -1.6,   -0.8,   -0.3,    0.5,    0.6,    1.4,    1.6,    1.7,    1.5,    0.8,    1.5,    2.2,    2.4,    2.0,    2.0,    2.7,    3.6,    3.6,    3.3,    2.6,    2.3,    2.0,    1.9,    1.9,    2.0,    1.8,    1.5,    2.6,    3.4,    3.9,    3.6,    3.0,    1.7,    1.7,    1.2,  999.0,  999.0,  999.0,  999.0,  999.0,  999.0,  999.0,  999.0,  999.0,  999.0,  999.0,  999.0,  999.0,  999.0,  999.0,  999.0,  999.0,  999.0,  999.0,  999.0,  999.0,  999.0,  999.0,  999.0,  999.0,  999.0,  999.0,  999.0,  999.0,  999.0,  999.0,  999.0,  999.0
2010/05/31 05:00,    2.2,    1.9,    1.1,    0.2,    1.1,    1.6,    1.4,    0.7,    0.1,  999.0,    0.2,    0.3,    0.3,    0.2,    0.3,    0.6,   -0.2,   -0.2,   -1.0,   -2.2,   -2.6,   -2.4,   -1.9,   -1.7,   -1.9,   -1.2,   -0.6,   -0.8,   -1.2,   -1.8,   -1.5,   -1.0,   -0.2,   -0.2,    0.2,    0.8,    1.7,    1.5,    1.1,    0.9,    1.5,    1.8,    2.1,    2.2,    2.2,    2.9,    3.2,    3.1,    2.3,    2.8,    3.3,    3.4,    3.7,    3.2,    3.1,    2.5,    2.4,    3.2,    3.3,    2.8,    2.8,    2.3,    1.7,    1.4,    1.3,  999.0,  999.0,  999.0,  999.0,  999.0,  999.0,  999.0,  999.0,  999.0,  999.0,  999.0,  999.0,  999.0,  999.0,  999.0,  999.0,  999.0,  999.0,  999.0,  999.0,  999.0,  999.0,  999.0,  999.0,  999.0,  999.0,  999.0,  999.0,  999.0,  999.0,  999.0,  999.0,  999.0
2010/05/31 05:10,  999.0,    0.5,    0.4,    0.5,    1.0,    2.0,    0.9,    0.7,   -0.1,  999.0,    0.3,   -0.3,    0.0,    0.0,   -0.1,    0.0,   -0.2,   -0.2,   -1.1,   -2.2,   -2.4,   -2.0,   -2.1,   -2.2,   -2.2,   -1.6,   -1.4,   -2.0,   -2.5,   -2.1,   -1.7,   -0.9,   -0.6,   -0.2,  999.0,    0.8,    1.6,    2.0,    1.3,    1.0,    1.2,    1.5,    1.7,    2.2,  999.0,    2.8,  999.0,    3.1,    3.4,    3.9,    4.1,    3.8,    3.9,    3.5,    3.6,    2.8,    2.8,    3.3,    3.2,    3.0,    3.0,    1.9,    1.8,    1.5,  999.0,  999.0,  999.0,  999.0,  999.0,  999.0,  999.0,  999.0,  999.0,  999.0,  999.0,  999.0,  999.0,  999.0,  999.0,  999.0,  999.0,  999.0,  999.0,  999.0,  999.0,  999.0,  999.0,  999.0,  999.0,  999.0,  999.0,  999.0,  999.0,  999.0,  999.0,  999.0,  999.0,  999.0
2010/05/31 05:20,    1.0,  999.0,    0.9,   -0.7,    1.0,    1.9,    1.0,    0.9,    0.1,  999.0,   -0.2,   -0.2,    0.5,    0.7,    0.6,    0.5,    0.4,    0.3,   -0.7,   -1.6,   -1.6,   -1.5,   -1.9,   -1.5,   -1.7,   -1.4,   -1.1,   -2.1,   -2.6,   -1.6,   -1.4,   -1.0,   -0.7,    0.1,  999.0,    1.0,    1.3,    1.2,    0.5,    0.5,    0.9,    1.5,    1.6,  999.0,    2.2,    2.8,    2.9,    3.4,    3.5,    3.5,    3.4,    3.1,    3.2,  999.0,    2.9,    2.6,    2.9,    2.6,    2.5,    1.9,    2.5,    2.6,    1.9,  999.0,  999.0,  999.0,  999.0,  999.0,  999.0,  999.0,  999.0,  999.0,  999.0,  999.0,  999.0,  999.0,  999.0,  999.0,  999.0,  999.0,  999.0,  999.0,  999.0,  999.0,  999.0,  999.0,  999.0,  999.0,  999.0,  999.0,  999.0,  999.0,  999.0,  999.0,  999.0,  999.0,  999.0,  999.0
2010/05/31 05:30,    1.0,    0.9,    0.9,    1.7,    3.0,  999.0,    1.3,    0.8,    0.3,  999.0,    2.1,  999.0,  999.0,    0.5,    1.0,   -0.2,   -0.5,   -0.4,   -1.5,   -2.3,   -2.0,   -2.1,   -2.0,   -2.5,   -2.3,   -1.4,   -1.6,   -2.5,   -2.4,   -2.0,   -1.7,   -1.2,   -0.9,    0.3,    1.1,    1.0,    1.3,    1.0,    0.8,    0.9,    0.8,    1.3,    1.6,    2.1,    2.2,    3.2,    3.7,    3.7,    3.9,    3.8,    3.6,    3.6,  999.0,    3.0,    3.1,    2.5,    2.7,    2.6,  999.0,  999.0,    2.0,    2.4,    2.3,  999.0,  999.0,  999.0,  999.0,  999.0,  999.0,  999.0,  999.0,  999.0,  999.0,  999.0,  999.0,  999.0,  999.0,  999.0,  999.0,  999.0,  999.0,  999.0,  999.0,  999.0,  999.0,  999.0,  999.0,  999.0,  999.0,  999.0,  999.0,  999.0,  999.0,  999.0,  999.0,  999.0,  999.0,  999.0
2010/05/31 05:40,  999.0,  999.0,  999.0,  999.0,  999.0,  999.0,  999.0,  999.0,  999.0,  999.0,    3.1,    1.7,    0.6,   -0.5,   -0.1,   -0.2,   -0.2,    0.2,   -0.4,   -1.5,   -2.1,   -2.0,   -2.5,   -2.7,   -2.7,   -2.5,   -2.2,   -2.6,   -3.0,   -2.6,   -2.5,   -1.7,   -1.3,   -0.4,    0.5,    1.1,    1.6,    1.3,    0.8,    0.8,    0.7,    0.9,    2.1,    2.8,  999.0,    3.2,    3.6,    3.9,    3.7,    3.5,    3.6,  999.0,    3.0,    3.1,    2.5,    2.7,    2.8,    1.7,    2.7,  999.0,  999.0,    2.6,    2.9,  999.0,  999.0,  999.0,  999.0,  999.0,  999.0,  999.0,  999.0,  999.0,  999.0,  999.0,  999.0,  999.0,  999.0,  999.0,  999.0,  999.0,  999.0,  999.0,  999.0,  999.0,  999.0,  999.0,  999.0,  999.0,  999.0,  999.0,  999.0,  999.0,  999.0,  999.0,  999.0,  999.0,  999.0,  999.0
2010/05/31 05:50,  999.0,  999.0,  999.0,  999.0,  999.0,  999.0,  999.0,  999.0,  999.0,  999.0,  999.0,  999.0,  999.0,   -0.2,    0.2,    0.4,   -0.1,   -0.2,   -0.4,  999.0,  999.0,  999.0,  999.0,  999.0,  999.0,   -1.9,   -1.8,   -2.5,   -2.4,   -2.4,   -2.2,   -1.7,   -1.1,   -0.4,    0.3,    0.9,    0.8,    0.4,    0.3,    0.7,    1.4,    1.9,    2.1,    2.5,    2.7,    3.5,    3.7,    3.7,    2.8,  999.0,    3.0,  999.0,  999.0,  999.0,    2.4,    2.6,    2.1,  999.0,    2.8,  999.0,  999.0,  999.0,  999.0,  999.0,  999.0,  999.0,  999.0,  999.0,  999.0,  999.0,  999.0,  999.0,  999.0,  999.0,  999.0,  999.0,  999.0,  999.0,  999.0,  999.0,  999.0,  999.0,  999.0,  999.0,  999.0,  999.0,  999.0,  999.0,  999.0,  999.0,  999.0,  999.0,  999.0,  999.0,  999.0,  999.0,  999.0,  999.0
2010/05/31 06:00,  999.0,  999.0,  999.0,  999.0,    3.4,  999.0,  999.0,  999.0,    0.5,    0.4,    1.1,    1.3,  999.0,    0.5,    0.3,    0.7,    0.1,    0.2,   -0.2,   -0.7,   -1.4,   -1.3,   -1.2,   -1.4,   -1.7,  999.0,   -1.7,   -1.6,   -2.2,   -2.0,   -1.3,   -0.9,   -0.7,    0.3,    1.0,    1.4,    1.6,    1.1,    0.9,    1.6,    2.0,  999.0,  999.0,    2.6,    3.4,    3.8,    4.0,    3.7,    3.3,  999.0,  999.0,  999.0,    2.9,    2.7,    2.9,    3.2,    3.0,  999.0,    3.8,    4.4,  999.0,  999.0,  999.0,  999.0,  999.0,  999.0,  999.0,  999.0,  999.0,  999.0,  999.0,  999.0,  999.0,  999.0,  999.0,  999.0,  999.0,  999.0,  999.0,  999.0,  999.0,  999.0,  999.0,  999.0,  999.0,  999.0,  999.0,  999.0,  999.0,  999.0,  999.0,  999.0,  999.0,  999.0,  999.0,  999.0,  999.0,  999.0
2010/05/31 06:10,  999.0,  999.0,  999.0,  999.0,  999.0,  999.0,    0.8,    0.7,    0.8,    0.7,    1.3,    2.0,    1.9,    1.3,    1.3,    1.7,    1.5,    0.4,   -0.4,   -0.7,   -1.2,   -1.6,   -1.2,   -1.5,   -1.5,   -2.0,   -1.8,   -2.0,   -2.3,   -1.7,   -1.1,   -1.3,   -0.9,    0.3,    0.8,    0.7,    0.9,  999.0,    0.3,    0.9,    1.1,    0.8,    1.6,    2.3,    2.5,    2.8,  999.0,  999.0,    2.5,  999.0,  999.0,  999.0,    2.2,  999.0,    2.7,    2.1,  999.0,  999.0,    3.2,    4.1,    4.0,  999.0,  999.0,  999.0,  999.0,  999.0,  999.0,  999.0,  999.0,  999.0,  999.0,  999.0,  999.0,  999.0,  999.0,  999.0,  999.0,  999.0,  999.0,  999.0,  999.0,  999.0,  999.0,  999.0,  999.0,  999.0,  999.0,  999.0,  999.0,  999.0,  999.0,  999.0,  999.0,  999.0,  999.0,  999.0,  999.0,  999.0
2010/05/31 06:20,  999.0,    0.7,    1.3,    3.4,    3.5,    2.5,    1.2,    0.8,    0.6,    0.1,    0.1,    1.0,    1.4,    1.3,    0.9,    1.1,    1.6,    1.5,    0.4,   -0.5,   -1.2,   -0.8,   -0.9,   -1.4,   -1.6,   -1.8,   -1.3,   -1.6,   -1.8,   -1.4,   -0.9,   -1.1,   -0.3,    0.5,    0.8,    0.9,    0.3,    0.6,    0.7,    0.7,    1.0,    0.9,    1.6,    2.0,    2.1,    2.0,    2.1,    3.1,  999.0,  999.0,  999.0,  999.0,  999.0,    2.4,    2.7,  999.0,  999.0,    3.4,    4.2,    4.4,    4.3,    4.1,  999.0,  999.0,  999.0,  999.0,  999.0,  999.0,  999.0,  999.0,  999.0,  999.0,  999.0,  999.0,  999.0,  999.0,  999.0,  999.0,  999.0,  999.0,  999.0,  999.0,  999.0,  999.0,  999.0,  999.0,  999.0,  999.0,  999.0,  999.0,  999.0,  999.0,  999.0,  999.0,  999.0,  999.0,  999.0,  999.0
2010/05/31 06:30,  999.0,  999.0,    1.8,    3.2,    3.2,    2.7,    0.7,    0.5,    0.4,   -0.0,   -0.1,    1.2,    2.3,    2.3,    1.6,    0.9,    1.4,    1.8,    0.6,   -0.2,   -0.7,   -0.3,   -0.4,   -1.3,   -1.3,   -1.0,   -0.8,   -0.9,   -1.2,   -0.7,   -0.7,   -0.7,   -0.1,    0.3,    0.4,    0.9,    0.9,    0.6,    0.6,    0.6,    0.9,    0.8,    1.3,    1.4,    1.1,    1.4,    1.2,  999.0,  999.0,  999.0,    2.3,    1.8,  999.0,  999.0,  999.0,  999.0,    3.1,    3.8,    4.2,    4.3,    4.1,    3.9,  999.0,  999.0,  999.0,  999.0,  999.0,  999.0,  999.0,  999.0,  999.0,  999.0,  999.0,  999.0,  999.0,  999.0,  999.0,  999.0,  999.0,  999.0,  999.0,  999.0,  999.0,  999.0,  999.0,  999.0,  999.0,  999.0,  999.0,  999.0,  999.0,  999.0,  999.0,  999.0,  999.0,  999.0,  999.0,  999.0
2010/05/31 06:40,  999.0,  999.0,    1.8,    2.3,  999.0,    0.7,    1.1,    0.6,   -0.1,    0.1,    0.6,    1.0,    1.9,    1.8,    0.9,    0.9,    2.0,    2.0,    0.6,    0.1,   -0.2,   -0.6,   -1.4,   -2.1,   -2.0,   -2.0,  999.0,   -2.1,   -1.6,   -1.0,   -1.2,   -0.9,   -0.5,   -0.7,   -0.4,    0.8,    0.6,    0.6,    0.7,    0.5,    1.2,    1.2,    1.3,    1.7,    1.3,    1.8,    1.6,  999.0,  999.0,  999.0,    3.1,    1.9,  999.0,    1.9,  999.0,    3.3,    4.4,    4.8,    5.0,    4.5,    4.0,  999.0,  999.0,  999.0,  999.0,  999.0,  999.0,  999.0,  999.0,  999.0,  999.0,  999.0,  999.0,  999.0,  999.0,  999.0,  999.0,  999.0,  999.0,  999.0,  999.0,  999.0,  999.0,  999.0,  999.0,  999.0,  999.0,  999.0,  999.0,  999.0,  999.0,  999.0,  999.0,  999.0,  999.0,  999.0,  999.0,  999.0
2010/05/31 06:50,    0.7,    1.2,    1.9,    3.0,  999.0,    1.5,    0.3,    0.5,    0.5,    0.4,    0.7,    0.9,    1.4,    1.0,    0.8,    0.3,    0.5,    1.4,    0.9,   -0.2,   -0.5,   -0.0,   -0.7,   -1.6,   -1.9,   -1.8,   -2.1,   -2.1,   -2.2,   -1.5,   -1.6,   -1.6,   -1.3,   -1.4,   -1.4,   -0.5,   -0.7,    0.3,   -0.2,    0.0,    0.5,    0.7,    0.9,    1.3,    1.1,    1.5,    1.7,    1.3,  999.0,  999.0,    2.6,    1.9,  999.0,  999.0,  999.0,    3.5,    4.3,    5.0,    5.3,    4.3,    3.8,  999.0,  999.0,  999.0,  999.0,  999.0,  999.0,  999.0,  999.0,  999.0,  999.0,  999.0,  999.0,  999.0,  999.0,  999.0,  999.0,  999.0,  999.0,  999.0,  999.0,  999.0,  999.0,  999.0,  999.0,  999.0,  999.0,  999.0,  999.0,  999.0,  999.0,  999.0,  999.0,  999.0,  999.0,  999.0,  999.0,  999.0
2010/05/31 07:00,   -0.3,    0.5,    0.7,    1.9,    1.3,    0.7,   -0.3,   -0.3,   -0.1,    0.0,    0.2,    0.5,    0.7,    1.2,    1.6,    1.2,    0.3,    0.8,    0.9,    0.3,    0.1,    0.0,   -0.2,  999.0,   -2.1,   -1.9,   -1.6,   -2.3,   -2.1,   -1.4,   -0.8,   -1.3,   -1.4,   -1.1,   -1.0,   -0.7,   -0.8,   -0.3,   -0.0,    0.1,    0.5,    0.7,    1.1,    1.5,    1.5,    2.0,  999.0,    0.6,    0.2,    0.1,    1.1,    1.5,  999.0,  999.0,    0.4,    3.5,    4.3,    5.0,  999.0,  999.0,  999.0,  999.0,  999.0,  999.0,  999.0,  999.0,  999.0,  999.0,  999.0,  999.0,  999.0,  999.0,  999.0,  999.0,  999.0,  999.0,  999.0,  999.0,  999.0,  999.0,  999.0,  999.0,  999.0,  999.0,  999.0,  999.0,  999.0,  999.0,  999.0,  999.0,  999.0,  999.0,  999.0,  999.0,  999.0,  999.0,  999.0,  999.0
2010/05/31 07:10,   -0.6,    0.4,    0.3,    0.6,    0.9,    0.7,   -0.5,   -0.2,    0.0,    0.4,    0.7,    1.0,    1.2,    1.8,    2.0,    1.6,    1.2,    0.7,    0.6,    0.4,    0.1,    0.6,    0.4,   -0.2,   -0.2,   -1.2,   -1.8,   -2.0,   -1.8,   -1.3,   -1.1,   -1.2,   -1.1,   -0.5,   -0.5,   -0.5,   -0.6,   -0.3,   -0.1,    0.1,    0.5,    0.9,    1.3,    1.7,    1.6,    1.9,    3.0,  999.0,  999.0,    0.3,  999.0,    1.5,    2.7,  999.0,    3.5,  999.0,  999.0,  999.0,  999.0,  999.0,  999.0,  999.0,  999.0,  999.0,  999.0,  999.0,  999.0,  999.0,  999.0,  999.0,  999.0,  999.0,  999.0,  999.0,  999.0,  999.0,  999.0,  999.0,  999.0,  999.0,  999.0,  999.0,  999.0,  999.0,  999.0,  999.0,  999.0,  999.0,  999.0,  999.0,  999.0,  999.0,  999.0,  999.0,  999.0,  999.0,  999.0,  999.0
2010/05/31 07:20,   -0.0,    0.1,   -0.3,   -0.1,   -0.1,   -1.0,   -0.4,   -0.0,    0.6,    0.7,    0.9,    1.4,    1.7,    1.5,    1.3,    0.8,    0.9,    0.8,    0.7,    0.4,   -0.1,   -0.3,   -0.4,   -0.6,   -1.0,   -1.7,   -2.6,   -2.3,   -2.5,   -1.6,   -1.5,   -2.0,   -2.1,   -1.3,   -1.1,   -1.3,   -1.4,   -0.6,   -0.2,   -0.4,   -0.1,    0.5,    0.8,    1.5,    1.5,    1.6,    2.2,  999.0,  999.0,  999.0,  999.0,  999.0,  999.0,    2.4,    2.7,    3.0,    4.0,  999.0,    5.6,  999.0,  999.0,  999.0,  999.0,  999.0,  999.0,  999.0,  999.0,  999.0,  999.0,  999.0,  999.0,  999.0,  999.0,  999.0,  999.0,  999.0,  999.0,  999.0,  999.0,  999.0,  999.0,  999.0,  999.0,  999.0,  999.0,  999.0,  999.0,  999.0,  999.0,  999.0,  999.0,  999.0,  999.0,  999.0,  999.0,  999.0,  999.0,  999.0
2010/05/31 07:30,   -0.5,   -0.1,   -0.2,   -0.2,   -0.3,   -0.6,   -0.6,    0.3,    0.6,  999.0,    1.1,    0.9,    1.6,    0.9,    0.8,    0.6,    0.4,    0.4,    0.7,    0.4,    0.1,   -0.3,   -0.3,   -1.0,   -1.0,   -1.1,   -1.8,   -2.1,   -2.0,   -1.6,   -1.8,   -2.2,   -2.3,   -1.9,   -1.7,   -1.3,   -1.3,   -1.0,   -0.2,    0.1,    0.2,    0.4,    0.7,    0.9,    0.9,    1.3,    1.9,    2.0,    2.2,    1.9,    2.1,  999.0,    2.8,    2.7,  999.0,    2.9,    3.9,  999.0,    5.6,    6.2,  999.0,  999.0,  999.0,  999.0,  999.0,  999.0,  999.0,  999.0,  999.0,  999.0,  999.0,  999.0,  999.0,  999.0,  999.0,  999.0,  999.0,  999.0,  999.0,  999.0,  999.0,  999.0,  999.0,  999.0,  999.0,  999.0,  999.0,  999.0,  999.0,  999.0,  999.0,  999.0,  999.0,  999.0,  999.0,  999.0,  999.0,  999.0
2010/05/31 07:40,   -1.7,   -0.7,   -0.5,   -0.8,   -0.7,   -0.2,   -0.1,    0.7,    0.6,    0.6,    1.0,    1.3,    1.8,    1.6,    1.9,    2.2,    0.5,    0.4,    0.3,    0.3,   -0.0,   -0.7,   -0.1,   -0.6,   -1.1,   -1.1,   -1.8,   -1.7,   -1.6,   -1.5,   -2.2,   -2.0,   -2.2,   -2.3,   -1.7,   -1.5,   -1.5,   -1.2,  999.0,   -0.3,   -0.5,    0.2,    0.4,    0.8,    1.1,    1.3,    2.0,    1.7,    1.9,    1.9,    2.1,    2.4,    2.8,    3.5,    3.2,    3.4,    4.3,    5.1,    5.4,    5.9,  999.0,    3.6,  999.0,  999.0,  999.0,  999.0,  999.0,  999.0,  999.0,  999.0,  999.0,  999.0,  999.0,  999.0,  999.0,  999.0,  999.0,  999.0,  999.0,  999.0,  999.0,  999.0,  999.0,  999.0,  999.0,  999.0,  999.0,  999.0,  999.0,  999.0,  999.0,  999.0,  999.0,  999.0,  999.0,  999.0,  999.0,  999.0
2010/05/31 07:50,   -1.5,   -1.2,   -0.6,   -0.5,   -0.6,    0.1,    0.6,    1.0,    1.1,    1.2,    1.5,    1.8,    2.1,    2.4,    3.0,    2.8,    1.5,    0.8,   -0.2,   -0.5,   -0.3,    0.1,    0.1,   -0.9,   -1.7,   -1.5,   -1.2,   -1.1,   -1.2,   -1.4,   -1.4,   -1.9,   -1.5,   -1.7,   -1.3,   -1.2,   -1.0,   -0.9,  999.0,    0.5,    0.3,    0.8,    1.1,    1.1,    1.1,    2.0,    2.8,    2.8,    2.1,    1.9,    2.3,  999.0,    4.0,    3.9,    3.4,    3.7,    4.3,    4.9,    5.0,    4.9,  999.0,    3.2,  999.0,  999.0,  999.0,  999.0,  999.0,  999.0,  999.0,  999.0,  999.0,  999.0,  999.0,  999.0,  999.0,  999.0,  999.0,  999.0,  999.0,  999.0,  999.0,  999.0,  999.0,  999.0,  999.0,  999.0,  999.0,  999.0,  999.0,  999.0,  999.0,  999.0,  999.0,  999.0,  999.0,  999.0,  999.0,  999.0
2010/05/31 08:00,  999.0,   -1.9,   -1.0,   -0.5,   -0.1,    0.1,    1.1,    1.4,    1.9,    2.3,    1.9,    1.5,    1.9,    2.1,    2.8,    2.8,    1.9,    1.0,    0.1,   -0.2,    0.1,    0.3,    0.5,    0.1,   -0.7,   -1.3,   -1.3,   -0.9,   -1.0,   -0.9,   -1.0,   -1.5,   -1.7,   -1.5,   -1.1,   -0.8,   -0.8,   -0.4,   -0.2,   -0.2,    0.2,    0.2,    0.6,    0.7,    0.8,  999.0,  999.0,    2.1,    2.1,    1.6,    2.9,    3.6,    4.0,    3.8,    3.3,    4.1,    4.7,    4.8,    5.0,  999.0,  999.0,    3.3,  999.0,  999.0,  999.0,  999.0,  999.0,  999.0,  999.0,  999.0,  999.0,  999.0,  999.0,  999.0,  999.0,  999.0,  999.0,  999.0,  999.0,  999.0,  999.0,  999.0,  999.0,  999.0,  999.0,  999.0,  999.0,  999.0,  999.0,  999.0,  999.0,  999.0,  999.0,  999.0,  999.0,  999.0,  999.0,  999.0
2010/05/31 08:10,  999.0,  999.0,   -0.9,   -0.7,   -0.2,    0.6,    1.2,    1.8,    1.7,    1.9,    1.3,    0.3,    0.5,    1.4,    2.1,    2.2,    2.6,    1.8,    0.6,    0.1,    0.2,    0.6,    0.6,    0.0,   -0.0,   -0.6,   -1.7,   -1.5,   -1.4,   -1.4,   -1.5,   -1.8,   -2.0,   -1.4,   -1.3,   -1.0,   -0.5,   -0.6,   -0.1,    0.3,    0.6,    1.0,    1.2,    1.2,    1.5,  999.0,    3.1,    2.8,    2.9,    2.4,    2.8,  999.0,  999.0,    4.0,    4.4,    5.1,    5.7,    5.9,  999.0,  999.0,  999.0,  999.0,  999.0,  999.0,  999.0,  999.0,  999.0,  999.0,  999.0,  999.0,  999.0,  999.0,  999.0,  999.0,  999.0,  999.0,  999.0,  999.0,  999.0,  999.0,  999.0,  999.0,  999.0,  999.0,  999.0,  999.0,  999.0,  999.0,  999.0,  999.0,  999.0,  999.0,  999.0,  999.0,  999.0,  999.0,  999.0,  999.0
2010/05/31 08:20,   -1.0,   -0.9,   -0.2,   -0.4,    0.3,    1.2,    1.6,    1.6,    1.5,    2.0,    1.3,    1.3,    1.9,    1.3,    1.2,    1.1,    2.6,  999.0,    1.7,    0.6,    0.1,    0.3,    0.2,    0.0,    0.2,   -0.2,   -0.9,   -1.1,   -1.2,   -1.1,   -1.2,   -1.7,   -2.2,   -1.5,   -1.8,   -1.9,   -1.5,   -1.0,   -0.2,   -0.1,   -0.3,    0.0,    0.1,    0.2,    0.1,    0.4,  999.0,    1.2,    1.6,    0.8,    1.6,    1.9,    2.1,  999.0,    4.1,    4.0,    4.5,  999.0,  999.0,  999.0,  999.0,  999.0,  999.0,  999.0,  999.0,  999.0,  999.0,  999.0,  999.0,  999.0,  999.0,  999.0,  999.0,  999.0,  999.0,  999.0,  999.0,  999.0,  999.0,  999.0,  999.0,  999.0,  999.0,  999.0,  999.0,  999.0,  999.0,  999.0,  999.0,  999.0,  999.0,  999.0,  999.0,  999.0,  999.0,  999.0,  999.0,  999.0
2010/05/31 08:30,  999.0,   -0.1,   -0.6,    0.2,    1.4,    2.1,    2.3,    1.3,    1.3,    2.2,    2.2,    2.6,    2.5,    1.2,    0.7,    0.9,    1.6,    2.0,    1.1,    0.2,   -0.3,   -0.1,   -0.1,   -0.3,   -0.4,   -0.9,   -1.3,   -1.4,   -1.8,   -1.9,   -2.1,   -2.7,   -2.9,   -2.5,   -2.3,   -2.0,   -1.7,   -1.4,  999.0,   -0.5,   -0.5,   -0.2,   -0.1,   -0.1,    0.1,    0.5,    1.4,    1.3,    2.0,    2.0,    2.3,    2.2,    2.8,    3.3,    3.9,    4.1,    4.6,    5.2,    4.7,    5.0,  999.0,  999.0,  999.0,  999.0,  999.0,  999.0,  999.0,  999.0,  999.0,  999.0,  999.0,  999.0,  999.0,  999.0,  999.0,  999.0,  999.0,  999.0,  999.0,  999.0,  999.0,  999.0,  999.0,  999.0,  999.0,  999.0,  999.0,  999.0,  999.0,  999.0,  999.0,  999.0,  999.0,  999.0,  999.0,  999.0,  999.0,  999.0
2010/05/31 08:40,   -0.8,   -0.5,   -0.5,  999.0,    0.4,    1.8,    2.6,    2.0,    1.9,    2.4,    3.4,    3.2,    2.8,    2.1,    1.8,    1.3,    0.8,    1.8,    1.9,    1.1,    0.2,    0.6,    0.5,   -0.2,   -0.5,   -0.8,   -1.1,   -1.6,   -2.0,   -2.4,   -2.5,   -2.5,   -2.6,   -2.2,   -1.4,   -1.9,   -1.1,   -0.7,   -0.2,   -0.1,   -0.2,   -0.2,    0.1,    0.3,    0.4,    0.9,    2.0,    2.2,    1.8,    2.4,    2.8,    2.0,    1.7,  999.0,  999.0,    4.3,    4.8,    5.7,  999.0,  999.0,    4.3,    4.7,  999.0,    3.8,  999.0,  999.0,  999.0,  999.0,  999.0,  999.0,  999.0,  999.0,  999.0,  999.0,  999.0,  999.0,  999.0,  999.0,  999.0,  999.0,  999.0,  999.0,  999.0,  999.0,  999.0,  999.0,  999.0,  999.0,  999.0,  999.0,  999.0,  999.0,  999.0,  999.0,  999.0,  999.0,  999.0,  999.0
2010/05/31 08:50,   -1.6,   -1.4,   -0.8,    0.7,    0.6,    1.1,    1.4,    1.3,    1.5,    2.2,    2.6,    3.2,    2.6,    2.0,    1.4,    1.4,    0.6,    0.8,    1.8,    1.7,    1.5,    1.0,    0.9,   -0.2,   -0.8,   -0.8,   -0.5,   -0.9,   -1.3,   -1.9,   -2.5,   -2.4,   -2.3,   -2.2,   -1.7,   -1.3,   -1.2,   -0.9,   -0.5,   -0.5,   -0.8,   -0.4,   -0.4,   -0.1,    0.2,    0.5,    1.7,    1.2,    1.0,    0.6,  999.0,  999.0,  999.0,  999.0,    2.7,    3.1,    3.7,  999.0,  999.0,  999.0,  999.0,  999.0,  999.0,  999.0,  999.0,  999.0,  999.0,  999.0,  999.0,  999.0,  999.0,  999.0,  999.0,  999.0,  999.0,  999.0,  999.0,  999.0,  999.0,  999.0,  999.0,  999.0,  999.0,  999.0,  999.0,  999.0,  999.0,  999.0,  999.0,  999.0,  999.0,  999.0,  999.0,  999.0,  999.0,  999.0,  999.0,  999.0
2010/05/31 09:00,    1.0,    0.8,    0.7,    0.9,    1.0,    0.3,    0.1,    0.9,    1.7,    2.4,    2.6,    2.9,    2.0,    1.2,    1.1,    1.2,    0.4,    0.5,    1.3,    1.9,    1.5,    1.0,    0.5,    0.2,   -0.1,   -0.0,   -0.3,   -0.9,   -1.5,   -2.1,   -1.7,   -1.1,   -1.2,   -1.3,   -0.8,    0.2,   -0.5,    0.1,   -0.1,   -1.0,   -0.4,   -0.0,   -0.2,   -0.0,    0.4,    1.2,    2.4,    1.8,  999.0,  999.0,  999.0,  999.0,  999.0,  999.0,    3.0,    3.2,    3.9,    4.5,  999.0,  999.0,  999.0,  999.0,  999.0,  999.0,  999.0,  999.0,  999.0,  999.0,  999.0,  999.0,  999.0,  999.0,  999.0,  999.0,  999.0,  999.0,  999.0,  999.0,  999.0,  999.0,  999.0,  999.0,  999.0,  999.0,  999.0,  999.0,  999.0,  999.0,  999.0,  999.0,  999.0,  999.0,  999.0,  999.0,  999.0,  999.0,  999.0,  999.0
2010/05/31 09:10,   -0.0,    1.0,    0.5,    0.2,    0.7,    0.5,    1.2,    1.8,    2.2,    3.0,    3.4,    2.3,    1.7,    1.3,    1.3,    1.0,    0.7,    1.2,    1.3,    0.3,    1.0,    0.9,    0.8,    0.5,    0.0,    0.2,    0.4,    0.1,   -0.5,   -0.9,   -0.9,   -1.4,   -1.8,   -1.2,   -1.4,   -1.4,   -1.0,   -0.8,   -0.9,   -1.3,   -0.8,   -0.8,   -0.8,   -0.3,   -0.1,    1.1,    1.8,    2.3,    2.1,    2.5,  999.0,  999.0,    3.4,  999.0,  999.0,    3.0,  999.0,  999.0,  999.0,  999.0,    4.6,  999.0,  999.0,    3.7,    3.2,  999.0,  999.0,  999.0,  999.0,  999.0,  999.0,  999.0,  999.0,  999.0,  999.0,  999.0,  999.0,  999.0,  999.0,  999.0,  999.0,  999.0,  999.0,  999.0,  999.0,  999.0,  999.0,  999.0,  999.0,  999.0,  999.0,  999.0,  999.0,  999.0,  999.0,  999.0,  999.0,  999.0
2010/05/31 09:20,   -0.1,   -0.9,   -0.3,    0.6,    0.7,    0.8,    0.9,    0.9,    1.4,    2.0,    3.5,    2.6,    2.2,    2.1,    2.6,    2.7,    2.5,    2.0,    1.9,    1.6,    1.4,    1.4,    1.4,    0.9,    0.3,   -0.0,    0.0,   -0.1,   -0.4,   -1.3,   -1.8,   -1.4,   -2.6,   -2.9,   -3.1,   -1.7,   -1.7,   -1.0,   -0.5,    0.1,  999.0,   -0.3,   -0.8,   -0.5,   -0.3,    1.0,    2.0,    2.1,    2.5,    3.1,    3.8,    3.8,  999.0,    3.8,    3.6,    3.6,  999.0,  999.0,  999.0,  999.0,  999.0,    3.6,  999.0,  999.0,  999.0,  999.0,  999.0,  999.0,  999.0,  999.0,  999.0,  999.0,  999.0,  999.0,  999.0,  999.0,  999.0,  999.0,  999.0,  999.0,  999.0,  999.0,  999.0,  999.0,  999.0,  999.0,  999.0,  999.0,  999.0,  999.0,  999.0,  999.0,  999.0,  999.0,  999.0,  999.0,  999.0,  999.0
2010/05/31 09:30,  999.0,   -0.2,   -0.3,   -0.1,   -0.0,   -0.1,    0.2,   -0.5,    0.6,    1.8,    2.8,    2.2,    2.5,    2.1,    2.6,    2.5,    2.2,    2.3,    2.5,    1.8,    1.9,    1.7,    1.6,    0.9,   -0.2,   -1.1,   -1.1,   -0.9,   -1.4,   -1.0,   -0.6,   -1.8,   -2.1,   -2.1,   -1.7,   -1.6,   -1.1,   -0.1,   -0.0,    0.1,   -0.1,   -0.3,   -0.2,   -0.3,   -0.2,   -0.0,    1.2,    1.4,    1.5,    2.0,  999.0,  999.0,  999.0,  999.0,  999.0,  999.0,    1.6,    0.7,  999.0,  999.0,    0.8,  999.0,  999.0,  999.0,  999.0,  999.0,  999.0,  999.0,  999.0,  999.0,  999.0,  999.0,  999.0,  999.0,  999.0,  999.0,  999.0,  999.0,  999.0,  999.0,  999.0,  999.0,  999.0,  999.0,  999.0,  999.0,  999.0,  999.0,  999.0,  999.0,  999.0,  999.0,  999.0,  999.0,  999.0,  999.0,  999.0,  999.0
2010/05/31 09:40,   -0.2,   -0.7,   -0.5,   -0.2,   -0.1,   -0.2,   -0.1,    0.4,    1.3,    1.8,    2.4,    2.6,    2.5,    1.8,    2.0,    2.0,    2.3,    2.2,    2.1,    1.8,    1.3,    1.3,    0.7,    0.1,   -0.1,    0.0,    0.1,   -0.3,   -0.5,   -0.8,   -1.3,   -1.2,   -1.7,   -1.6,   -1.2,   -1.2,   -0.5,   -0.1,   -0.1,    0.0,   -0.4,   -0.3,   -0.2,   -0.3,    0.4,    1.3,    1.8,    1.6,    1.9,    0.3,  999.0,    2.0,    2.6,  999.0,  999.0,    2.1,  999.0,  999.0,  999.0,  999.0,  999.0,  999.0,  999.0,  999.0,  999.0,  999.0,  999.0,  999.0,  999.0,  999.0,  999.0,  999.0,  999.0,  999.0,  999.0,  999.0,  999.0,  999.0,  999.0,  999.0,  999.0,  999.0,  999.0,  999.0,  999.0,  999.0,  999.0,  999.0,  999.0,  999.0,  999.0,  999.0,  999.0,  999.0,  999.0,  999.0,  999.0,  999.0
2010/05/31 09:50,  999.0,  999.0,    0.1,  999.0,    1.8,    2.1,    1.4,    1.2,    1.8,    2.0,    2.4,    2.6,    2.4,    2.2,    1.9,    2.0,    2.2,    2.3,    1.7,    1.0,    0.5,   -0.0,    0.0,    0.1,   -0.1,   -0.3,   -0.7,   -1.1,   -1.4,   -1.8,   -1.5,   -1.9,   -1.6,   -1.0,   -1.2,   -1.0,   -0.7,   -0.0,    0.0,    0.0,   -0.0,   -0.2,   -0.3,   -0.2,    0.2,    1.5,  999.0,    0.9,    1.2,    0.5,    1.2,    2.3,    2.2,    2.1,  999.0,    3.2,  999.0,  999.0,  999.0,  999.0,    4.7,  999.0,  999.0,  999.0,  999.0,  999.0,  999.0,  999.0,  999.0,  999.0,  999.0,  999.0,  999.0,  999.0,  999.0,  999.0,  999.0,  999.0,  999.0,  999.0,  999.0,  999.0,  999.0,  999.0,  999.0,  999.0,  999.0,  999.0,  999.0,  999.0,  999.0,  999.0,  999.0,  999.0,  999.0,  999.0,  999.0,  999.0
2010/05/31 10:00,   -0.4,   -0.1,    0.2,   -0.0,    0.2,    1.1,    1.1,    1.2,    2.1,    2.7,    2.6,    2.8,    2.5,    2.5,    2.6,    1.9,    2.4,    2.3,    2.2,    1.7,    0.9,    0.1,   -0.4,   -0.9,   -1.1,   -1.1,   -1.2,   -1.3,   -1.5,   -1.9,   -2.3,   -3.0,   -3.2,   -3.0,   -2.6,   -2.3,   -2.5,   -0.5,   -0.1,   -0.0,   -0.1,   -0.0,    0.0,    0.2,    0.1,    0.5,    0.9,    0.1,    0.2,    0.3,    0.5,    0.5,    0.5,    0.5,  999.0,    3.2,  999.0,  999.0,  999.0,  999.0,  999.0,  999.0,  999.0,  999.0,  999.0,  999.0,  999.0,  999.0,  999.0,  999.0,  999.0,  999.0,  999.0,  999.0,  999.0,  999.0,  999.0,  999.0,  999.0,  999.0,  999.0,  999.0,  999.0,  999.0,  999.0,  999.0,  999.0,  999.0,  999.0,  999.0,  999.0,  999.0,  999.0,  999.0,  999.0,  999.0,  999.0,  999.0
2010/05/31 10:10,   -2.1,   -0.7,   -0.4,    0.5,   -0.0,    0.1,   -0.3,   -1.3,    1.1,    0.9,    1.2,    1.7,    2.2,    2.1,    1.7,    1.5,    1.8,    1.8,    1.5,    1.1,    0.6,   -0.1,   -0.3,   -0.3,   -0.4,    0.0,   -0.2,   -1.0,   -1.4,   -1.8,   -1.8,   -2.4,   -3.1,   -3.0,   -2.4,   -2.0,   -1.5,   -0.3,   -0.1,   -0.1,   -0.0,   -0.1,   -0.2,   -0.1,   -0.1,    0.2,    0.6,    0.1,    0.1,    0.1,    0.4,    0.8,    1.6,    1.4,    0.7,    1.6,   -0.0,  999.0,    0.2,    0.1,    0.3,  999.0,  999.0,    0.2,  999.0,  999.0,  999.0,  999.0,  999.0,  999.0,  999.0,  999.0,  999.0,  999.0,  999.0,  999.0,  999.0,  999.0,  999.0,  999.0,  999.0,  999.0,  999.0,  999.0,  999.0,  999.0,  999.0,  999.0,  999.0,  999.0,  999.0,  999.0,  999.0,  999.0,  999.0,  999.0,  999.0,  999.0
2010/05/31 10:20,   -0.5,   -2.0,   -1.3,   -0.2,   -0.0,   -0.2,    0.3,    0.2,    0.8,    1.1,    2.0,    2.1,    1.8,    1.5,    1.5,    1.2,    1.2,    0.9,    0.2,   -0.7,   -1.5,   -1.9,   -2.2,   -2.6,   -2.6,   -2.7,   -3.0,   -3.2,   -3.2,   -3.5,   -3.4,   -3.7,   -4.8,   -4.3,   -4.2,   -2.7,   -2.7,   -0.8,   -0.2,   -0.4,   -0.5,   -0.1,   -0.3,   -0.2,   -0.0,    0.1,    0.1,    0.1,   -0.0,    0.1,    0.6,    0.4,    1.2,    1.4,    2.5,    0.3,    0.3,    0.4,   -0.1,    0.5,    0.4,    0.1,    0.1,  999.0,  999.0,  999.0,  999.0,  999.0,  999.0,  999.0,  999.0,  999.0,  999.0,  999.0,  999.0,  999.0,  999.0,  999.0,  999.0,  999.0,  999.0,  999.0,  999.0,  999.0,  999.0,  999.0,  999.0,  999.0,  999.0,  999.0,  999.0,  999.0,  999.0,  999.0,  999.0,  999.0,  999.0,  999.0
2010/05/31 10:30,   -1.2,   -1.3,   -0.7,   -0.0,    0.2,    0.5,    0.2,    1.2,    0.9,    1.1,    1.8,    1.8,    1.4,    1.1,    1.4,    1.4,    1.1,    0.9,    0.9,    0.7,    0.3,   -0.5,   -1.1,   -1.2,   -1.4,   -1.4,   -1.5,   -2.3,   -3.3,   -3.2,   -2.0,   -3.3,   -3.5,   -3.2,   -2.5,   -1.1,   -0.7,   -0.2,   -0.1,   -0.1,   -0.2,   -0.1,   -0.0,    0.0,    0.0,   -0.0,    0.1,    0.1,    0.1,    0.3,    0.8,    0.6,    0.7,    0.3,    0.5,    0.4,    1.0,    1.0,    0.8,    0.2,    0.4,    0.2,  999.0,  999.0,   -0.3,  999.0,  999.0,  999.0,    0.0,  999.0,  999.0,  999.0,  999.0,  999.0,  999.0,  999.0,  999.0,  999.0,  999.0,  999.0,  999.0,  999.0,  999.0,  999.0,  999.0,  999.0,  999.0,   -0.2,  999.0,  999.0,  999.0,  999.0,  999.0,  999.0,  999.0,  999.0,  999.0,  999.0
2010/05/31 10:40,   -0.4,   -0.2,   -0.3,    0.3,    0.7,    0.7,    0.9,    0.6,    0.2,    0.6,    0.7,    1.1,    1.1,    1.3,    1.8,    2.0,    2.0,    2.2,    2.3,    2.1,    1.8,    0.2,    0.5,    0.6,    0.0,   -0.2,   -0.2,   -0.6,   -0.7,   -1.0,   -0.7,   -1.0,   -1.5,   -1.5,   -0.9,   -0.3,   -0.0,    0.1,    0.0,   -0.0,   -0.0,   -0.1,   -0.1,    0.1,   -0.0,    0.1,    0.1,    0.0,    0.1,    0.2,    0.7,    0.8,    0.4,    1.2,    1.2,    1.3,    1.2,    0.7,   -0.0,    0.2,    0.5,    1.6,    1.8,  999.0,  999.0,  999.0,  999.0,  999.0,  999.0,   -0.1,  999.0,  999.0,  999.0,  999.0,  999.0,  999.0,  999.0,  999.0,  999.0,  999.0,    0.0,  999.0,  999.0,  999.0,  999.0,  999.0,  999.0,  999.0,  999.0,  999.0,  999.0,  999.0,  999.0,  999.0,  999.0,  999.0,  999.0,  999.0
2010/05/31 10:50,   -0.5,   -0.9,   -0.2,    0.6,    0.6,    0.7,    1.2,    1.1,    1.9,    2.1,    3.2,    3.0,    2.2,    2.8,    3.1,    2.9,    2.5,    3.2,    3.0,    1.4,    1.2,   -1.1,   -0.5,   -0.8,   -0.9,   -1.3,   -1.2,   -1.4,   -1.3,   -1.2,   -1.0,   -0.6,   -1.0,   -1.0,   -0.7,   -0.1,    0.1,    0.4,    0.4,    0.2,    0.1,   -0.0,   -0.0,    0.1,    0.1,    0.1,   -0.0,    0.1,    0.3,    0.2,    0.3,    0.2,    1.0,    2.3,    4.1,    4.9,    5.4,    4.2,    2.3,    0.7,    0.9,  999.0,    2.0,  999.0,  999.0,  999.0,  999.0,  999.0,  999.0,  999.0,  999.0,  999.0,  999.0,  999.0,  999.0,  999.0,  999.0,  999.0,  999.0,  999.0,  999.0,  999.0,  999.0,  999.0,  999.0,  999.0,  999.0,  999.0,  999.0,  999.0,  999.0,  999.0,  999.0,  999.0,  999.0,  999.0,  999.0,  999.0
2010/05/31 11:00,   -0.6,   -0.9,   -0.2,    0.2,    0.1,    0.2,    0.3,    0.4,    0.5,    1.0,    2.6,    3.6,    3.3,    3.0,    2.7,    2.6,    3.0,    3.2,    2.1,    2.3,    1.9,    0.6,   -0.2,   -1.0,   -1.4,   -1.4,   -2.1,   -2.6,   -2.7,   -2.3,   -2.0,   -2.0,   -1.8,   -1.2,   -1.2,   -0.4,    0.3,    0.2,    0.1,    0.1,   -0.0,   -0.2,   -0.1,    0.1,    0.1,    0.1,    0.2,    0.0,   -0.0,   -0.0,    0.2,    0.3,    0.8,    0.8,    1.3,    2.0,    3.3,    1.7,    1.3,    0.7,    0.1,    0.1,    0.4,  999.0,  999.0,  999.0,  999.0,  999.0,  999.0,   -0.1,  999.0,  999.0,  999.0,  999.0,  999.0,  999.0,  999.0,  999.0,  999.0,  999.0,  999.0,  999.0,  999.0,  999.0,  999.0,  999.0,  999.0,  999.0,    0.0,  999.0,  999.0,  999.0,  999.0,  999.0,  999.0,  999.0,  999.0,  999.0
2010/05/31 11:10,   -0.3,   -0.2,   -0.1,   -0.1,    0.0,    0.0,    0.3,    0.3,    0.2,    1.1,    2.5,    3.2,    1.8,    1.0,    1.3,    2.0,    2.1,    1.8,  999.0,    1.1,    0.8,    0.1,   -0.6,   -2.3,   -3.1,   -3.2,   -3.2,   -2.6,   -2.9,   -2.7,   -2.7,   -2.1,   -2.3,   -1.7,   -1.2,   -1.2,   -0.8,   -0.4,   -0.2,   -0.0,   -0.0,    0.0,   -0.0,   -0.1,   -0.0,   -0.1,   -0.1,   -0.0,    0.1,    0.1,    0.2,    0.3,    0.2,    0.1,    0.3,    0.2,    0.0,    0.1,    0.2,    0.1,    0.2,    0.0,    0.1,    0.1,  999.0,    0.0,   -0.2,  999.0,  999.0,  999.0,  999.0,  999.0,  999.0,  999.0,  999.0,  999.0,  999.0,  999.0,  999.0,  999.0,  999.0,  999.0,  999.0,  999.0,  999.0,  999.0,  999.0,  999.0,  999.0,  999.0,  999.0,  999.0,  999.0,  999.0,  999.0,  999.0,  999.0,  999.0
2010/05/31 11:20,   -0.6,   -0.8,   -0.3,   -0.3,   -0.0,    0.1,    0.3,    0.7,    1.0,    1.4,    2.7,    2.2,    1.4,    1.1,    1.6,    1.4,    2.2,    2.9,    2.3,    1.6,    1.7,    0.5,    0.6,   -0.5,   -1.1,   -1.4,   -2.1,   -2.3,   -2.4,   -2.2,   -1.7,   -1.3,   -1.3,   -1.3,   -1.8,   -0.8,   -0.6,   -0.2,   -0.0,   -0.1,   -0.1,   -0.1,   -0.1,   -0.1,    0.0,    0.1,   -0.1,   -0.0,    0.1,    0.2,    0.5,    0.2,    0.3,    0.9,    0.1,    0.1,    0.1,    0.0,    0.1,    0.1,    0.0,    0.0,    0.1,  999.0,  999.0,    0.1,    0.1,  999.0,  999.0,    0.1,  999.0,  999.0,  999.0,  999.0,  999.0,  999.0,  999.0,  999.0,    0.3,  999.0,  999.0,  999.0,  999.0,  999.0,  999.0,  999.0,  999.0,    0.2,  999.0,  999.0,  999.0,  999.0,  999.0,    0.1,  999.0,  999.0,  999.0,  999.0
2010/05/31 11:30,  999.0,   -1.4,   -0.4,   -0.3,   -0.0,    0.1,    0.1,    0.1,    0.9,    1.1,    1.4,    0.9,    1.0,    1.3,    1.7,    1.2,    0.9,    1.1,    2.0,    1.2,    2.0,    0.6,    0.1,    0.2,    0.3,   -0.6,    0.1,    0.1,  999.0,  999.0,    1.9,   -0.2,   -0.6,   -0.7,   -0.1,    0.2,    0.4,    0.5,    0.2,    0.3,    0.6,    0.2,    0.1,    0.2,    0.1,    0.2,    0.2,    0.0,    0.1,    0.1,    0.1,    0.1,    0.0,    0.2,    0.1,    0.1,    0.1,    0.1,    0.2,   -0.0,    0.1,   -0.0,    0.0,   -0.1,    0.2,    0.2,   -0.7,  999.0,  999.0,  999.0,  999.0,  999.0,   -0.1,   -0.0,  999.0,  999.0,  999.0,    0.2,  999.0,  999.0,  999.0,  999.0,  999.0,  999.0,  999.0,  999.0,  999.0,  999.0,  999.0,    0.1,  999.0,    0.0,  999.0,  999.0,  999.0,  999.0,  999.0,  999.0
2010/05/31 11:40,   -1.3,   -1.2,   -0.8,   -0.1,   -0.3,   -0.1,    0.2,    0.5,    1.1,    1.2,    1.0,    1.3,    1.7,    2.6,    2.5,    3.1,    2.5,    1.3,    1.5,  999.0,  999.0,    0.8,    0.3,    0.4,   -0.1,    0.4,    1.5,    1.9,   -0.3,    0.1,    0.4,   -0.3,   -0.2,   -0.6,   -0.7,   -1.2,   -0.2,   -0.4,    0.0,    0.2,    0.2,    0.4,    0.2,   -0.2,   -0.3,   -0.0,   -0.0,    0.2,   -0.0,   -0.2,   -0.3,    0.0,    0.2,    0.3,    0.1,    0.3,    0.2,    0.1,    0.0,   -0.1,    0.2,  999.0,  999.0,  999.0,  999.0,  999.0,  999.0,  999.0,  999.0,  999.0,  999.0,  999.0,  999.0,  999.0,  999.0,  999.0,  999.0,  999.0,  999.0,  999.0,  999.0,  999.0,  999.0,  999.0,  999.0,  999.0,  999.0,  999.0,  999.0,  999.0,  999.0,  999.0,  999.0,  999.0,  999.0,  999.0,  999.0,  999.0
2010/05/31 11:50,  999.0,   -2.0,   -1.6,   -1.0,   -0.4,    0.1,    0.6,    0.8,    0.5,    1.8,    2.8,    2.3,    2.5,    2.9,    2.7,    2.7,    2.1,    3.0,    1.8,    1.4,    1.5,    0.6,    0.3,    0.2,   -0.2,   -0.3,   -0.1,   -0.1,    0.2,    0.3,   -0.5,   -0.7,   -0.2,   -0.2,   -0.0,   -0.1,   -0.1,    0.2,    0.4,    0.7,    1.0,    1.0,    0.4,    0.2,    0.1,    0.2,    0.3,    0.2,   -0.1,    0.1,    0.5,    0.2,    0.2,    0.3,    0.6,    0.7,    0.9,    0.4,    0.1,    0.1,    0.2,  999.0,  999.0,  999.0,  999.0,  999.0,  999.0,  999.0,  999.0,  999.0,  999.0,  999.0,  999.0,  999.0,  999.0,  999.0,  999.0,  999.0,  999.0,  999.0,  999.0,  999.0,  999.0,  999.0,  999.0,  999.0,  999.0,  999.0,  999.0,  999.0,  999.0,  999.0,  999.0,  999.0,  999.0,  999.0,  999.0,  999.0
2010/05/31 12:00,   -1.5,   -2.4,   -1.7,   -2.1,   -1.4,   -1.3,   -0.7,    0.3,    0.7,    0.9,    1.4,    1.3,    2.2,    1.0,    3.1,    0.4,  999.0,  999.0,   -0.3,  999.0,  999.0,  999.0,   -1.1,    1.9,  999.0,   -2.6,   -3.6,   -1.5,    0.2,   -1.0,  999.0,   -2.0,  999.0,   -1.5,   -0.5,   -0.3,    0.2,    0.0,    1.1,    1.3,    1.7,    1.4,    0.7,    0.4,    0.1,    0.0,    0.4,    0.2,    0.2,    0.2,    0.2,    0.1,    0.4,    0.6,    0.9,    0.5,    0.2,    0.3,    0.5,    0.3,    0.7,    0.4,  999.0,  999.0,  999.0,  999.0,  999.0,  999.0,  999.0,  999.0,  999.0,  999.0,  999.0,  999.0,  999.0,  999.0,  999.0,   -0.1,  999.0,  999.0,  999.0,  999.0,  999.0,  999.0,  999.0,  999.0,   -0.1,  999.0,  999.0,  999.0,  999.0,  999.0,  999.0,  999.0,  999.0,  999.0,  999.0,  999.0
2010/05/31 12:10,   -0.8,   -1.6,   -0.7,   -0.6,    0.3,    0.8,    2.0,  999.0,    3.5,    4.8,    4.9,    7.2,  999.0,    5.0,    8.2,   -1.8,    0.8,    0.2,    0.0,  999.0,   -1.7,   -2.6,   -4.6,  999.0,  999.0,  999.0,   -2.7,  999.0,    0.2,    1.5,    1.2,    0.7,    1.7,    1.2,    1.2,    1.9,    1.0,    0.8,    0.3,    0.7,    1.2,    1.8,    1.5,    0.2,    0.1,    0.3,    1.3,    0.5,    0.4,    0.1,    0.5,    0.3,    0.5,    1.2,    1.5,  999.0,    0.1,    0.2,    0.8,    0.1,    0.4,    0.8,    0.1,  999.0,  999.0,  999.0,  999.0,  999.0,  999.0,   -0.2,  999.0,  999.0,  999.0,  999.0,  999.0,  999.0,  999.0,  999.0,  999.0,  999.0,  999.0,  999.0,  999.0,  999.0,  999.0,  999.0,  999.0,   -0.0,  999.0,  999.0,  999.0,  999.0,  999.0,  999.0,  999.0,  999.0,  999.0,  999.0
2010/05/31 12:20,   -0.7,  999.0,   -0.3,   -0.3,    1.3,    2.7,    3.5,    4.0,    6.0,    8.1,    8.2,    8.1,  999.0,    8.2,    9.8,    8.4,   10.7,   10.6,    7.9,    7.1,    7.4,    6.3,   11.4,    7.7,    5.2,    6.7,    7.9,    5.8,  999.0,    2.8,    2.2,    2.4,   -0.1,    0.0,    0.1,    0.5,    1.2,    1.3,    0.4,    0.8,    1.6,    1.3,    0.3,    0.1,    0.0,   -0.1,    0.1,    0.5,    0.5,    0.3,    0.3,    0.1,    0.1,    0.4,    0.3,    0.2,   -0.1,    0.1,   -0.2,   -0.4,    0.3,    0.5,  999.0,  999.0,  999.0,  999.0,  999.0,  999.0,  999.0,  999.0,  999.0,  999.0,  999.0,  999.0,  999.0,  999.0,  999.0,  999.0,  999.0,  999.0,  999.0,  999.0,  999.0,  999.0,  999.0,  999.0,  999.0,   -0.2,  999.0,  999.0,  999.0,  999.0,  999.0,  999.0,  999.0,  999.0,  999.0,  999.0
2010/05/31 12:30,   -0.4,   -0.6,   -0.7,   -1.1,   -0.8,   -0.4,    1.0,    2.3,    3.3,    4.1,    5.6,    6.2,    8.7,    8.2,    8.8,   10.1,    9.9,    9.5,    7.8,    6.8,    4.7,  999.0,    9.9,    7.8,    9.0,    9.3,    1.7,    6.0,    5.5,    1.5,  999.0,  999.0,   -0.6,    4.8,   -1.1,    1.7,    0.7,    2.3,    1.9,    1.5,  999.0,  999.0,  999.0,  999.0,   -0.7,   -0.3,  999.0,    0.2,    0.0,   -0.0,    0.2,   -0.1,    0.1,  999.0,    1.6,  999.0,   -0.8,   -0.2,   -0.4,   -0.2,  999.0,  999.0,    0.8,    0.6,    0.3,  999.0,  999.0,  999.0,  999.0,  999.0,    1.2,  999.0,  999.0,  999.0,  999.0,  999.0,  999.0,  999.0,  999.0,  999.0,  999.0,  999.0,  999.0,  999.0,  999.0,  999.0,  999.0,  999.0,  999.0,  999.0,  999.0,  999.0,  999.0,  999.0,  999.0,  999.0,  999.0,  999.0
2010/05/31 12:40,    9.0,   10.4,   10.9,   -0.3,    8.5,    8.6,   -6.8,   -0.9,    5.2,   16.7,   15.2,   13.7,   15.6,   16.0,   17.2,   11.5,   12.0,   12.7,   10.1,    8.9,    9.8,    2.2,    1.4,   10.2,  999.0,    8.6,  999.0,    7.8,    8.7,    9.4,  999.0,  999.0,    7.7,    3.5,  999.0,    5.4,  999.0,  999.0,    5.3,    4.6,    3.2,    2.4,    2.3,    1.3,    1.2,    0.3,  999.0,   -0.6,    0.0,    0.0,    0.3,    0.1,   -0.2,    0.1,    0.2,    0.9,    1.2,    1.5,  999.0,    1.6,    1.3,    1.0,  999.0,  999.0,  999.0,  999.0,  999.0,  999.0,  999.0,  999.0,  999.0,  999.0,  999.0,  999.0,  999.0,  999.0,  999.0,  999.0,  999.0,  999.0,  999.0,  999.0,  999.0,  999.0,  999.0,  999.0,  999.0,  999.0,  999.0,  999.0,  999.0,  999.0,  999.0,  999.0,  999.0,  999.0,  999.0,  999.0
2010/05/31 12:50,   -0.4,   -0.2,   -0.1,   -0.5,    1.3,    1.2,    1.5,   -1.0,   -4.0,    2.7,    1.7,    0.6,    0.9,    1.1,    2.4,    3.3,    3.7,    3.6,    4.5,    6.2,    9.9,    5.7,    1.2,  999.0,  999.0,  999.0,  999.0,  999.0,  999.0,  999.0,  999.0,  999.0,   -1.7,   -1.6,   -2.2,   -0.3,   -0.5,   -0.1,    0.5,    0.5,    0.3,    0.1,    0.1,    0.1,    0.0,    0.0,    0.2,    0.1,    0.1,    0.0,    0.2,    0.1,    0.1,    0.1,    0.6,    1.0,    0.6,    0.6,    0.7,    1.3,    0.8,  999.0,  999.0,  999.0,  999.0,  999.0,  999.0,  999.0,  999.0,  999.0,  999.0,  999.0,  999.0,  999.0,  999.0,  999.0,  999.0,  999.0,  999.0,  999.0,  999.0,  999.0,  999.0,  999.0,  999.0,  999.0,  999.0,  999.0,  999.0,  999.0,  999.0,  999.0,  999.0,  999.0,  999.0,  999.0,  999.0,  999.0
2010/05/31 13:00,   -0.1,    0.1,    0.3,    1.1,    0.8,    3.5,  999.0,    1.9,    1.0,    1.0,    1.5,    1.7,    2.2,    2.0,    2.2,    1.0,    0.7,    1.2,    1.0,    1.7,    1.3,    0.7,    1.2,   -0.4,   -0.1,   -0.2,   -0.1,   -1.4,   -2.2,   -1.8,   -2.3,   -2.2,   -3.2,   -3.4,   -2.8,   -2.1,   -1.3,   -0.3,   -0.1,    0.0,    0.0,   -0.0,    0.0,   -0.1,   -0.1,   -0.0,   -0.2,    0.0,   -0.2,   -0.1,    0.3,    0.2,    0.4,    0.3,    0.9,    0.8,    1.0,  999.0,  999.0,  999.0,  999.0,    4.4,    7.7,  999.0,  999.0,  999.0,  999.0,  999.0,  999.0,  999.0,  999.0,  999.0,  999.0,  999.0,  999.0,  999.0,  999.0,  999.0,  999.0,  999.0,  999.0,  999.0,  999.0,  999.0,  999.0,  999.0,  999.0,  999.0,  999.0,  999.0,  999.0,  999.0,  999.0,  999.0,  999.0,  999.0,  999.0,  999.0
2010/05/31 13:10,   -0.5,    0.4,    1.2,    1.9,    2.7,    2.7,    2.9,    2.9,    2.3,    2.7,    2.3,    2.2,    2.5,    1.9,    0.9,    1.0,    0.1,   -1.4,   -1.5,   -0.3,    0.4,  999.0,   -0.9,   -4.4,   -0.7,   -0.7,    0.4,   -2.9,   -5.5,   -5.3,   -4.0,   -1.7,   -6.0,   -5.6,   -6.7,   -2.1,   -5.8,   -5.8,   -3.6,   -9.8,  999.0,   -7.8,  999.0,  999.0,  999.0,  999.0,  999.0,  999.0,  999.0,   -2.6,   -3.0,   -4.1,   -4.4,   -3.5,   -2.9,   -3.5,   -5.1,   -3.1,  999.0,   -0.4,   -1.9,    0.9,  999.0,  999.0,  999.0,  999.0,  999.0,  999.0,  999.0,  999.0,  999.0,  999.0,  999.0,  999.0,  999.0,  999.0,  999.0,  999.0,  999.0,  999.0,  999.0,  999.0,  999.0,  999.0,  999.0,  999.0,  999.0,  999.0,  999.0,  999.0,  999.0,  999.0,  999.0,  999.0,  999.0,  999.0,  999.0,  999.0
2010/05/31 13:20,  999.0,  999.0,    0.1,    1.0,    1.1,    3.6,    4.5,    4.4,    3.8,    2.6,    2.0,    1.6,    2.5,    2.9,    3.9,    4.6,    5.4,    5.2,    4.0,    4.3,    3.4,    0.5,    1.1,    1.3,    1.8,    0.9,   -0.8,   -0.1,   -1.4,   -3.4,   -3.5,  999.0,   -6.8,   -8.8,   -8.2,   -8.7,   -7.4,  -10.8,   -9.7,  -10.2,   -9.6,  -10.0,  999.0,  -11.5,   -9.4,  -14.4,  -10.5,   -7.9,   -8.3,   -5.8,   -9.9,   -8.7,   -5.0,   -4.1,  999.0,  999.0,   -6.7,   -5.3,   -4.0,   -2.9,   -3.0,   -0.8,   -2.3,  999.0,  999.0,    0.4,   -0.3,   -0.2,    2.6,   -0.7,   -1.0,  999.0,  999.0,  999.0,  999.0,  999.0,  999.0,  999.0,  999.0,  999.0,  999.0,  999.0,  999.0,  999.0,  999.0,  999.0,  999.0,  999.0,  999.0,  999.0,  999.0,  999.0,  999.0,  999.0,  999.0,  999.0,  999.0,  999.0
2010/05/31 13:30,  999.0,   -0.1,   -0.4,    0.3,    1.3,    1.9,    2.6,    2.8,  999.0,    2.4,    1.5,    1.8,    2.0,    2.6,    2.2,    2.4,    1.7,    1.4,    0.7,    1.1,    1.0,    0.4,    0.5,  999.0,    0.1,   -2.2,   -3.1,   -3.3,   -3.8,   -3.6,   -1.9,   -1.9,   -1.5,   -1.7,   -1.9,   -1.7,   -1.6,   -2.0,   -2.0,   -1.8,   -2.1,   -2.1,   -1.9,   -1.6,   -1.4,   -0.4,   -0.5,   -0.3,   -0.0,    0.4,    0.1,    0.3,   -0.3,   -1.3,    0.6,    0.4,    0.1,  999.0,   -0.2,   -2.4,   -0.6,   -2.8,  999.0,  999.0,   -1.4,  999.0,   -2.2,  999.0,  999.0,   -0.8,   -1.6,  999.0,  999.0,    0.1,  999.0,  999.0,  999.0,  999.0,  999.0,  999.0,  999.0,  999.0,  999.0,  999.0,  999.0,  999.0,  999.0,  999.0,  999.0,  999.0,  999.0,  999.0,  999.0,  999.0,  999.0,  999.0,  999.0,  999.0
2010/05/31 13:40,   -1.3,   -0.1,    1.0,    0.2,    3.2,    4.4,    3.7,    3.0,    2.1,    1.9,    1.7,    1.0,    1.7,    1.7,    2.0,    2.0,    2.0,    1.0,    1.4,    1.2,    1.7,    0.6,   -0.3,   -0.7,   -0.5,   -0.3,   -0.0,    0.2,   -0.1,   -0.3,   -1.2,   -1.7,   -2.2,   -2.0,   -2.0,   -1.8,   -1.3,   -0.6,   -0.6,   -0.5,   -0.7,   -0.3,   -0.3,   -0.1,   -0.1,    0.0,    0.1,    0.1,    0.1,    0.3,    0.5,    0.1,    0.2,    0.0,    0.1,    0.1,    0.1,   -0.0,   -0.2,    0.1,  999.0,  999.0,  999.0,  999.0,  999.0,  999.0,  999.0,  999.0,  999.0,  999.0,  999.0,  999.0,  999.0,  999.0,  999.0,  999.0,  999.0,  999.0,  999.0,  999.0,  999.0,  999.0,  999.0,  999.0,  999.0,  999.0,  999.0,  999.0,  999.0,  999.0,  999.0,  999.0,  999.0,  999.0,  999.0,  999.0,  999.0,  999.0
2010/05/31 13:50,   -1.0,   -1.1,   -0.1,    0.3,    1.1,    2.7,    2.5,    1.1,    0.6,    0.5,    1.0,    1.6,    2.6,    2.7,    2.4,    2.9,    2.6,    2.2,    1.0,   -0.1,   -0.3,   -0.7,   -0.5,   -0.1,    0.2,    0.4,    0.7,   -0.4,   -1.1,   -0.9,   -0.6,   -0.5,   -0.6,   -0.7,   -0.6,   -0.5,   -0.4,    0.0,    0.1,    0.1,    0.0,   -0.4,   -0.1,   -0.1,   -0.1,   -0.0,    0.0,    0.0,   -0.0,   -0.0,    0.2,    0.1,    0.1,    0.1,    0.0,   -0.1,   -0.0,   -0.1,    0.1,    0.1,    0.0,   -0.0,  999.0,  999.0,  999.0,  999.0,  999.0,  999.0,  999.0,  999.0,  999.0,  999.0,  999.0,  999.0,  999.0,  999.0,  999.0,  999.0,  999.0,  999.0,  999.0,  999.0,  999.0,  999.0,  999.0,  999.0,  999.0,  999.0,  999.0,  999.0,  999.0,  999.0,  999.0,  999.0,  999.0,  999.0,  999.0,  999.0
2010/05/31 14:00,   -1.1,   -1.0,   -0.2,   -0.1,    0.6,    1.9,    1.1,    0.6,    0.3,    0.9,    1.3,    1.6,    1.5,    1.4,    1.8,    1.8,    1.0,    0.5,    0.3,   -0.1,   -0.7,   -1.3,   -1.5,   -1.5,   -1.2,   -1.2,   -0.9,   -0.8,   -0.4,   -0.4,   -0.7,   -0.9,   -0.6,   -0.4,   -0.4,   -0.1,   -0.3,   -0.2,    0.0,    0.1,   -0.3,    0.0,   -0.4,   -0.4,    0.1,    0.3,  999.0,    0.0,    0.1,    0.1,    0.2,    0.3,    0.3,    0.1,    0.1,    0.1,    0.0,    0.0,    0.1,    0.1,    0.1,  999.0,  999.0,  999.0,   -0.2,  999.0,  999.0,  999.0,  999.0,  999.0,  999.0,  999.0,  999.0,  999.0,  999.0,  999.0,  999.0,  999.0,  999.0,  999.0,  999.0,  999.0,  999.0,  999.0,  999.0,  999.0,  999.0,  999.0,  999.0,  999.0,  999.0,  999.0,  999.0,  999.0,  999.0,  999.0,  999.0,  999.0
2010/05/31 14:10,   -0.9,   -0.6,   -0.1,    0.2,    0.3,    0.5,    0.4,    0.6,    0.8,    1.5,    2.0,    1.6,    2.4,    2.2,    1.7,    1.6,    0.9,    0.7,    0.7,    0.3,   -0.4,   -1.3,   -1.6,   -1.6,   -1.8,   -1.3,   -0.9,   -1.0,   -1.1,   -1.0,   -0.9,   -1.2,   -1.3,   -1.3,   -1.4,   -1.7,   -1.2,   -0.5,    0.1,    0.2,    0.2,   -0.2,   -0.5,   -0.4,    0.0,    0.4,    0.4,    0.1,    0.1,    0.1,    0.0,    0.1,    0.2,    0.0,   -0.1,    0.1,    0.0,    0.1,    0.0,    0.1,    0.1,   -0.2,  999.0,  999.0,  999.0,  999.0,  999.0,  999.0,  999.0,  999.0,  999.0,  999.0,  999.0,  999.0,  999.0,  999.0,  999.0,  999.0,  999.0,  999.0,  999.0,  999.0,  999.0,  999.0,  999.0,  999.0,  999.0,  999.0,  999.0,  999.0,  999.0,  999.0,  999.0,  999.0,  999.0,  999.0,  999.0,  999.0
2010/05/31 14:20,   -0.9,   -0.1,    0.1,    0.2,   -0.1,   -0.0,    0.3,    0.6,    1.1,    1.7,    2.9,    3.3,    4.1,    2.8,    2.8,    2.6,    2.5,    2.1,    2.4,    1.7,    1.6,    1.0,    0.6,    0.7,    0.4,    0.3,    0.1,    0.1,    0.2,    0.1,   -0.4,   -0.8,   -1.2,   -1.5,  999.0,  999.0,   -1.3,   -0.5,   -0.1,   -0.0,   -0.0,   -0.2,   -0.5,   -0.6,   -0.1,    0.0,    0.2,   -0.1,    0.0,    0.3,    0.3,    0.1,    0.0,    0.0,    0.1,    0.2,    0.1,    0.1,    0.2,    0.0,    0.1,  999.0,  999.0,  999.0,  999.0,  999.0,  999.0,  999.0,  999.0,  999.0,  999.0,  999.0,  999.0,  999.0,  999.0,  999.0,  999.0,  999.0,  999.0,  999.0,  999.0,  999.0,  999.0,  999.0,  999.0,  999.0,  999.0,  999.0,  999.0,  999.0,  999.0,   -0.0,  999.0,  999.0,  999.0,  999.0,  999.0,  999.0
2010/05/31 14:30,   -1.3,   -0.8,   -0.1,   -0.4,   -0.2,   -0.3,    0.3,    0.2,    0.9,    2.1,    2.6,    2.8,    2.4,    2.4,    2.3,    1.7,    1.2,    0.6,    0.3,   -0.2,   -0.9,   -0.5,   -0.6,    0.3,    0.1,   -0.0,   -0.5,   -0.8,   -0.8,   -1.2,   -1.9,   -2.1,   -2.0,   -2.0,   -1.5,   -1.7,   -0.9,   -0.6,    0.1,    0.1,    0.1,   -0.2,    0.0,    0.1,   -0.2,    0.7,    0.9,    0.7,    0.4,    0.1,    0.1,    0.0,    0.0,    0.0,    0.0,    0.3,    0.1,    0.0,    0.3,    0.1,    0.1,   -0.1,  999.0,  999.0,    0.2,  999.0,  999.0,  999.0,  999.0,  999.0,  999.0,  999.0,  999.0,  999.0,  999.0,  999.0,  999.0,  999.0,  999.0,  999.0,  999.0,  999.0,  999.0,  999.0,  999.0,  999.0,  999.0,  999.0,  999.0,  999.0,  999.0,  999.0,  999.0,  999.0,  999.0,  999.0,  999.0,  999.0
2010/05/31 14:40,   -1.1,   -0.6,   -0.4,   -1.0,   -1.4,   -0.5,    0.3,    0.3,    1.1,    1.9,    2.1,    2.0,    2.0,    1.5,    1.7,    1.4,    0.8,    0.5,    0.2,    0.2,   -0.1,   -0.3,   -0.4,   -0.7,   -1.5,   -1.8,   -2.0,   -1.8,   -1.7,   -1.2,   -1.8,   -2.1,   -2.3,   -2.0,   -2.1,  999.0,  999.0,   -0.6,    0.2,    0.0,   -0.1,   -0.0,   -0.1,   -0.0,    0.1,    0.4,    0.7,    0.6,    0.5,    0.2,    0.1,    0.1,    0.0,    0.2,    0.1,    0.1,    0.1,    0.1,    0.1,    0.0,    0.1,    0.1,  999.0,  999.0,  999.0,  999.0,  999.0,  999.0,  999.0,  999.0,  999.0,  999.0,  999.0,  999.0,  999.0,  999.0,  999.0,  999.0,  999.0,  999.0,  999.0,  999.0,  999.0,  999.0,  999.0,  999.0,  999.0,  999.0,  999.0,  999.0,  999.0,  999.0,  999.0,  999.0,  999.0,  999.0,  999.0,  999.0
2010/05/31 14:50,   -0.3,   -0.9,   -0.5,   -0.9,   -0.6,   -0.4,    0.1,    0.4,    1.0,    1.9,    1.8,    1.8,    2.0,    1.3,    1.0,    1.3,    1.9,    1.6,    1.6,    1.0,    0.8,   -0.1,   -0.1,   -0.1,   -0.2,   -0.4,   -0.8,   -0.6,   -0.9,   -0.5,   -0.5,   -0.8,   -1.4,   -0.8,   -1.2,   -0.7,   -0.4,    0.0,    0.0,   -0.1,   -0.2,    0.0,   -0.4,   -0.2,    0.0,    0.0,    0.0,    0.1,   -0.1,    0.0,    0.1,    0.1,    0.0,    0.0,    0.2,    0.1,    0.0,    0.1,    0.0,    0.1,    0.3,   -0.2,  999.0,  999.0,  999.0,  999.0,  999.0,  999.0,  999.0,  999.0,  999.0,  999.0,  999.0,  999.0,  999.0,  999.0,  999.0,  999.0,  999.0,  999.0,  999.0,  999.0,  999.0,  999.0,  999.0,  999.0,  999.0,  999.0,  999.0,  999.0,  999.0,  999.0,  999.0,  999.0,  999.0,  999.0,  999.0,  999.0
2010/05/31 15:00,   -0.8,   -1.7,   -0.9,   -1.1,   -0.9,   -1.2,    0.0,    0.6,    0.9,    1.1,    1.6,    2.1,    2.2,    1.9,    1.0,    1.2,    1.4,    1.2,    1.6,    1.3,    1.1,    0.4,   -0.1,   -0.6,   -1.0,   -1.4,   -1.6,   -1.5,   -1.4,   -1.3,   -1.4,   -1.9,   -2.1,   -1.7,   -1.0,   -0.5,   -0.3,   -0.3,   -0.1,   -0.3,   -0.8,   -0.5,   -0.5,   -0.3,   -0.1,   -0.1,   -0.2,    0.0,    0.0,    0.1,    0.2,    0.3,    0.0,    0.1,    0.0,    0.2,    0.5,    0.6,    0.1,    0.1,    0.1,  999.0,  999.0,  999.0,  999.0,  999.0,  999.0,  999.0,  999.0,  999.0,  999.0,  999.0,  999.0,  999.0,  999.0,  999.0,  999.0,  999.0,  999.0,  999.0,  999.0,  999.0,  999.0,  999.0,  999.0,  999.0,  999.0,  999.0,    0.0,    0.0,  999.0,  999.0,  999.0,  999.0,  999.0,  999.0,  999.0,  999.0
2010/05/31 15:10,   -0.0,    0.6,   -0.2,   -0.0,    0.7,    1.0,    0.8,    0.4,    0.6,    1.4,    1.8,    1.9,    2.3,    2.4,    2.2,    1.4,    1.4,    1.3,    1.6,    1.5,    0.5,   -0.1,   -0.6,   -1.4,   -1.7,   -1.5,   -1.3,   -1.1,   -1.4,   -1.3,   -1.9,   -2.3,   -1.8,   -1.4,   -1.1,  999.0,   -0.3,   -0.0,   -0.1,    0.1,    0.1,   -0.1,   -0.1,   -0.3,   -0.2,   -0.2,    0.0,    0.3,    0.2,    0.1,    0.2,    0.3,    0.1,    0.1,   -0.1,    0.1,    0.1,    0.7,  999.0,    0.4,    0.0,   -0.0,  999.0,   -0.1,   -0.4,  999.0,  999.0,  999.0,  999.0,  999.0,  999.0,  999.0,  999.0,  999.0,  999.0,  999.0,  999.0,  999.0,  999.0,  999.0,  999.0,  999.0,  999.0,  999.0,  999.0,  999.0,  999.0,  999.0,  999.0,  999.0,  999.0,  999.0,  999.0,  999.0,  999.0,  999.0,  999.0,  999.0
2010/05/31 15:20,  999.0,    0.4,   -0.4,    0.2,    0.7,    1.1,    1.0,   -0.3,    0.7,    0.6,    0.9,    1.2,    1.8,    1.7,    1.5,    0.6,    0.2,    0.6,    0.8,    0.4,    0.2,   -0.1,   -0.5,   -1.3,   -1.5,   -0.9,   -1.2,   -1.4,   -0.8,   -1.2,   -1.9,   -1.8,   -1.2,  999.0,  999.0,  999.0,   -0.5,   -0.1,   -0.3,   -0.3,   -0.2,   -0.1,   -0.0,   -0.1,   -0.2,   -0.4,   -0.2,   -0.0,    0.1,    0.1,    0.1,    0.0,    0.1,    0.1,   -0.0,   -0.0,   -0.0,    0.1,    0.1,    0.1,    0.0,    0.2,  999.0,  999.0,    0.3,  999.0,   -0.3,  999.0,  999.0,  999.0,  999.0,  999.0,  999.0,  999.0,  999.0,  999.0,  999.0,  999.0,  999.0,  999.0,  999.0,  999.0,  999.0,  999.0,  999.0,  999.0,  999.0,  999.0,  999.0,  999.0,  999.0,  999.0,  999.0,  999.0,  999.0,  999.0,  999.0,  999.0
2010/05/31 15:30,  999.0,  999.0,   -0.4,    0.2,    1.2,   -0.0,   -0.9,   -1.2,   -1.2,   -0.5,    0.7,    1.1,    1.5,    1.8,    1.6,    1.6,    1.4,    1.3,    0.8,    0.0,   -0.7,   -1.1,   -1.6,   -1.3,   -1.7,   -1.1,   -1.4,   -1.1,   -1.0,   -1.6,   -1.5,   -1.8,   -1.7,   -1.5,   -1.9,   -1.1,   -0.2,    0.0,   -0.1,   -0.3,   -0.5,   -0.3,   -0.3,   -0.2,   -0.1,   -0.3,  999.0,   -0.0,    0.0,    0.1,    0.1,    0.2,    0.4,   -0.0,    0.1,    0.0,    0.1,    0.3,    0.1,    0.0,  999.0,  999.0,    0.1,    0.0,  999.0,   -0.2,  999.0,  999.0,  999.0,  999.0,  999.0,  999.0,  999.0,  999.0,  999.0,  999.0,  999.0,  999.0,  999.0,  999.0,  999.0,  999.0,  999.0,  999.0,  999.0,  999.0,  999.0,  999.0,  999.0,   -0.2,    0.1,  999.0,  999.0,  999.0,  999.0,  999.0,  999.0,  999.0
2010/05/31 15:40,    1.7,    1.3,    1.9,    0.4,    0.2,    1.3,    1.5,    1.6,    2.1,    2.2,    1.7,    1.6,    1.8,    1.5,    1.6,    1.5,    1.8,    1.8,    1.4,    1.1,    0.9,    0.8,    0.4,    0.1,    0.6,    0.6,    0.4,    0.1,   -0.1,   -1.1,   -1.1,   -0.8,   -0.6,   -0.6,    0.2,  999.0,    0.2,   -0.3,    0.1,   -0.4,   -0.3,    0.1,    0.0,    0.0,   -0.4,   -0.4,  999.0,   -0.7,   -0.7,   -0.1,    0.0,    0.1,    0.3,   -0.0,    0.0,    0.0,    0.0,    0.2,    0.1,    0.2,    0.1,    0.0,  999.0,  999.0,  999.0,    0.0,    0.2,  999.0,  999.0,  999.0,  999.0,  999.0,  999.0,  999.0,  999.0,  999.0,  999.0,  999.0,  999.0,  999.0,  999.0,  999.0,  999.0,  999.0,  999.0,  999.0,  999.0,  999.0,  999.0,    0.1,  999.0,   -0.0,    0.1,  999.0,  999.0,  999.0,  999.0,  999.0
2010/05/31 15:50,    0.3,    0.8,    1.4,    0.9,    0.8,    0.9,    1.2,    1.1,    0.6,    0.9,    1.0,    1.3,    1.9,    2.0,    1.4,    1.2,    1.2,    1.2,    0.4,    0.1,   -0.3,   -0.4,   -0.2,    0.6,    0.4,    0.2,    0.0,   -0.3,    0.1,    0.1,   -0.4,   -0.1,   -0.2,   -0.3,   -0.6,  999.0,    0.1,   -0.3,    0.2,   -0.0,  999.0,  999.0,    0.2,   -0.0,    0.1,    0.1,  999.0,   -0.1,   -0.2,   -0.0,    0.1,    0.0,    0.2,    0.2,    0.3,    0.1,   -0.0,    0.0,   -0.0,    0.0,   -0.1,   -0.8,  999.0,    0.0,  999.0,   -0.2,  999.0,  999.0,  999.0,  999.0,  999.0,  999.0,  999.0,  999.0,  999.0,  999.0,  999.0,  999.0,  999.0,  999.0,  999.0,  999.0,  999.0,  999.0,  999.0,  999.0,  999.0,  999.0,  999.0,  999.0,  999.0,    0.1,  999.0,  999.0,  999.0,  999.0,  999.0,  999.0
2010/05/31 16:00,    0.5,    0.1,    0.3,    0.6,    0.3,    0.6,    0.9,    0.8,    0.7,    0.9,    1.5,    2.0,    2.2,    2.6,    2.3,    2.2,    2.4,    2.4,    2.0,    1.1,    1.0,    0.5,    0.5,    0.3,    0.5,    0.2,   -0.0,   -0.2,    0.5,   -0.5,   -1.1,   -0.6,   -0.4,   -0.8,   -0.3,  999.0,   -0.1,   -0.3,    0.0,    0.4,    0.3,    0.4,    0.0,    0.0,    0.0,   -0.1,  999.0,   -0.5,   -0.2,   -0.1,    0.0,    0.1,    0.3,    0.5,    0.3,    0.2,    0.4,    0.1,    0.0,    0.2,    0.2,  999.0,    0.5,  999.0,   -0.1,  999.0,  999.0,  999.0,  999.0,  999.0,  999.0,  999.0,  999.0,  999.0,  999.0,  999.0,  999.0,  999.0,  999.0,  999.0,  999.0,  999.0,  999.0,  999.0,  999.0,  999.0,  999.0,  999.0,  999.0,  999.0,  999.0,  999.0,  999.0,  999.0,  999.0,  999.0,  999.0,  999.0
2010/05/31 16:10,   -1.0,   -0.1,    0.8,    0.2,   -0.1,   -1.0,   -0.4,   -0.3,    0.2,    0.5,    1.0,    1.5,    1.8,    2.1,    2.1,    1.9,    2.2,    2.6,    1.4,    1.8,    0.6,    0.5,    0.3,    0.2,    0.1,    0.3,    0.4,    0.0,   -0.1,   -0.8,   -1.3,   -0.8,   -1.0,   -1.2,  999.0,   -0.2,  999.0,    0.4,    0.2,   -0.0,   -0.8,    0.1,    0.1,   -0.1,   -0.1,    0.1,  999.0,   -0.0,   -0.9,   -0.6,  999.0,    0.1,    0.0,    0.3,    0.4,    0.6,  999.0,    0.4,    0.1,   -0.1,  999.0,  999.0,  999.0,   -0.1,  999.0,   -0.0,  999.0,  999.0,  999.0,  999.0,  999.0,  999.0,  999.0,  999.0,  999.0,  999.0,  999.0,  999.0,  999.0,  999.0,  999.0,  999.0,  999.0,  999.0,  999.0,  999.0,  999.0,  999.0,  999.0,  999.0,  999.0,  999.0,  999.0,  999.0,  999.0,  999.0,  999.0,  999.0
2010/05/31 16:20,    0.8,   -0.2,   -0.4,   -0.3,    0.6,    0.6,    1.0,    1.5,    1.8,    2.1,    1.9,    1.6,    1.4,    1.7,    1.4,    0.9,    0.8,    0.9,    0.6,   -0.2,   -0.6,   -0.7,   -0.6,   -0.3,   -0.2,   -0.2,   -0.1,   -0.5,   -0.8,   -1.7,   -1.3,   -0.6,   -0.3,   -0.8,   -0.3,    0.2,    0.2,   -0.7,  999.0,    0.5,   -1.5,    0.8,  999.0,  999.0,  999.0,  999.0,  999.0,  999.0,  999.0,   -0.2,   -0.1,   -0.2,   -0.1,    0.2,    0.7,    0.9,    0.4,    0.3,    0.1,    0.1,    0.2,   -0.1,  999.0,  999.0,  999.0,  999.0,  999.0,  999.0,  999.0,  999.0,  999.0,  999.0,  999.0,  999.0,  999.0,  999.0,  999.0,  999.0,  999.0,  999.0,  999.0,  999.0,  999.0,  999.0,  999.0,  999.0,  999.0,  999.0,  999.0,  999.0,    0.2,    0.3,  999.0,  999.0,  999.0,  999.0,  999.0,  999.0
2010/05/31 16:30,   -0.9,   -1.1,   -0.6,    0.3,    0.1,   -0.0,    0.9,    0.3,    0.4,    0.4,    0.7,    0.5,    0.2,    0.4,    0.8,    1.1,    1.2,    0.7,    0.4,    0.1,   -0.1,   -1.0,   -0.9,   -0.8,   -0.3,   -0.3,   -0.3,   -0.4,   -0.7,   -1.3,   -1.3,   -0.9,   -0.5,   -1.1,   -0.6,    0.7,  999.0,    0.1,   -0.4,   -0.1,  999.0,    0.3,   -0.1,   -1.0,   -0.1,    0.1,  999.0,  999.0,   -0.1,   -0.1,   -0.0,   -0.1,    0.2,    0.8,    1.6,    1.4,    0.6,    0.2,    0.1,    0.2,    0.1,   -0.1,   -0.2,   -0.1,  999.0,    0.2,  999.0,  999.0,  999.0,  999.0,  999.0,  999.0,  999.0,  999.0,  999.0,  999.0,  999.0,  999.0,  999.0,  999.0,  999.0,  999.0,  999.0,  999.0,  999.0,  999.0,  999.0,  999.0,  999.0,  999.0,  999.0,  999.0,  999.0,  999.0,  999.0,  999.0,  999.0,  999.0
2010/05/31 16:40,    0.2,    0.3,   -0.0,   -0.1,   -0.3,   -0.4,    0.1,    0.4,    1.2,    1.3,    0.8,    0.7,    1.1,    1.3,    1.4,    1.9,    1.9,    1.8,    0.9,    0.4,   -0.5,   -0.7,   -0.6,   -0.3,   -0.2,   -0.1,   -0.1,   -0.7,   -0.8,   -1.2,   -1.3,   -0.7,   -0.8,   -0.7,   -0.8,    0.1,    0.9,   -0.1,   -0.3,    0.0,    0.0,    0.1,   -0.2,   -0.8,   -0.7,   -0.1,  999.0,   -0.1,   -0.1,   -0.1,   -0.3,   -0.1,    0.3,    0.4,    1.1,    0.7,    0.5,    0.6,    0.1,    0.1,   -0.1,   -0.0,   -0.4,  999.0,  999.0,  999.0,  999.0,  999.0,  999.0,  999.0,  999.0,  999.0,  999.0,  999.0,  999.0,  999.0,  999.0,  999.0,  999.0,  999.0,  999.0,  999.0,  999.0,  999.0,  999.0,  999.0,  999.0,  999.0,  999.0,  999.0,  999.0,  999.0,  999.0,  999.0,  999.0,  999.0,  999.0,  999.0
2010/05/31 16:50,   -0.3,    0.4,   -0.7,   -0.7,   -0.9,   -0.8,   -0.3,    0.1,    0.1,   -0.4,   -0.8,    0.3,    0.5,    0.7,    1.1,    1.8,    2.4,    2.4,    2.0,    0.7,   -0.8,   -0.8,   -0.2,    0.2,   -0.1,   -0.2,   -0.6,   -1.0,   -1.4,   -1.2,   -0.6,   -0.7,   -0.6,   -0.4,   -0.9,    0.1,    0.5,    0.1,    0.4,    0.0,    0.2,   -0.1,   -0.1,   -0.3,   -0.5,   -0.4,  999.0,   -0.7,   -0.4,   -0.1,   -0.1,    0.2,    0.2,  999.0,    0.6,    0.3,   -0.0,    0.0,   -0.1,    0.0,   -0.2,  999.0,   -0.0,   -0.0,  999.0,  999.0,  999.0,  999.0,  999.0,  999.0,  999.0,  999.0,  999.0,  999.0,  999.0,  999.0,  999.0,  999.0,  999.0,  999.0,  999.0,  999.0,  999.0,  999.0,  999.0,  999.0,  999.0,  999.0,  999.0,  999.0,  999.0,  999.0,  999.0,  999.0,  999.0,  999.0,  999.0,  999.0
2010/05/31 17:00,    0.9,    1.1,    0.2,   -0.4,   -0.2,    0.3,    1.0,    0.9,    1.6,    1.3,    1.5,    2.3,    3.2,    3.5,    3.0,    3.1,    3.3,    3.1,    3.0,    1.6,   -0.2,   -0.3,    0.2,    0.4,    0.2,   -0.3,   -0.6,   -0.8,   -1.1,   -1.0,   -0.9,   -0.7,   -0.9,   -0.8,   -0.7,   -0.2,    0.3,   -0.3,   -0.2,   -0.6,   -0.8,   -0.1,   -0.2,   -0.6,   -0.2,   -0.9,  999.0,   -0.3,   -0.8,   -0.8,   -0.5,   -0.1,    0.1,    0.3,    0.8,    0.6,    0.6,    0.4,    0.2,   -0.0,   -0.2,  999.0,  999.0,  999.0,  999.0,  999.0,  999.0,  999.0,  999.0,  999.0,  999.0,  999.0,  999.0,  999.0,  999.0,  999.0,  999.0,  999.0,  999.0,  999.0,  999.0,  999.0,  999.0,  999.0,  999.0,  999.0,  999.0,  999.0,  999.0,  999.0,  999.0,  999.0,  999.0,  999.0,  999.0,  999.0,  999.0,  999.0
2010/05/31 17:10,    1.5,    1.2,    0.2,    0.1,    0.1,   -0.6,   -0.6,   -0.2,    0.6,    0.9,    1.8,    1.6,    2.3,    2.4,    2.8,    3.1,    3.1,    2.3,    1.3,    0.4,   -0.6,   -0.4,    0.1,   -0.2,   -0.7,   -0.8,   -0.8,   -1.0,   -1.1,   -0.6,   -0.3,   -0.6,   -0.6,   -0.5,   -0.7,   -0.2,    0.4,    0.3,    0.1,   -0.3,   -0.6,   -0.8,   -0.7,   -1.5,   -1.3,  999.0,   -1.0,   -0.5,   -0.4,   -0.8,   -1.6,   -0.3,   -0.1,    0.1,    0.3,    0.2,    0.2,    0.1,    0.0,   -0.1,   -0.0,  999.0,  999.0,  999.0,  999.0,  999.0,  999.0,  999.0,  999.0,  999.0,  999.0,  999.0,  999.0,  999.0,  999.0,  999.0,  999.0,  999.0,  999.0,  999.0,  999.0,  999.0,  999.0,  999.0,  999.0,  999.0,  999.0,  999.0,  999.0,  999.0,  999.0,  999.0,  999.0,  999.0,  999.0,  999.0,  999.0,  999.0
2010/05/31 17:20,  999.0,   -0.8,   -0.5,   -1.0,   -0.8,   -0.4,   -0.3,    0.4,    0.8,    1.7,    2.0,    1.9,    1.7,    1.9,    2.1,    2.4,    2.5,    2.1,    1.2,    0.0,   -1.3,   -1.6,   -1.2,   -0.7,   -0.8,   -0.8,   -0.8,   -1.0,   -0.8,   -0.3,   -0.1,   -0.3,   -0.1,    0.2,    0.2,    0.8,    1.1,    1.0,    0.1,   -0.1,   -0.3,   -0.0,   -0.3,   -0.6,   -0.3,   -0.4,   -0.9,   -0.5,   -0.2,   -0.1,   -0.6,   -0.0,    0.0,    0.1,    0.1,    0.0,    0.1,    0.2,    0.1,    0.0,   -0.0,    0.0,   -0.1,  999.0,  999.0,  999.0,  999.0,  999.0,  999.0,  999.0,  999.0,  999.0,  999.0,  999.0,  999.0,  999.0,  999.0,  999.0,  999.0,  999.0,  999.0,  999.0,  999.0,  999.0,  999.0,  999.0,  999.0,  999.0,  999.0,  999.0,  999.0,  999.0,  999.0,  999.0,  999.0,  999.0,  999.0,  999.0
2010/05/31 17:30,    1.1,  999.0,    1.1,    0.8,    0.3,   -0.5,   -0.2,   -0.1,  999.0,    1.9,    2.4,    2.1,    2.4,    2.6,    2.9,    3.2,    2.5,    2.7,    2.2,    1.4,   -0.1,   -1.1,   -0.7,   -0.6,   -0.6,   -0.9,   -1.2,   -1.4,   -1.5,   -1.0,   -0.7,   -0.4,    0.2,   -0.1,   -0.5,   -0.2,    0.4,   -0.5,   -0.1,   -0.7,   -0.9,   -0.9,   -0.9,   -0.3,   -0.4,   -1.2,   -2.2,   -2.1,  999.0,  999.0,  999.0,   -0.3,   -0.1,   -0.0,    0.1,    0.1,    0.1,   -0.0,   -0.0,   -0.0,   -0.0,   -0.1,  999.0,  999.0,  999.0,  999.0,  999.0,  999.0,  999.0,  999.0,  999.0,  999.0,  999.0,  999.0,  999.0,  999.0,  999.0,  999.0,  999.0,  999.0,  999.0,  999.0,  999.0,  999.0,  999.0,  999.0,  999.0,  999.0,  999.0,  999.0,  999.0,  999.0,  999.0,  999.0,  999.0,  999.0,  999.0,  999.0
2010/05/31 17:40,    0.7,  999.0,   -0.0,   -0.7,   -1.9,   -0.5,   -0.2,   -0.2,    1.3,    2.1,    1.9,    1.7,    2.4,  999.0,    2.4,  999.0,    2.4,    2.4,    1.9,    1.0,   -0.2,   -1.0,   -0.8,   -0.9,   -1.3,   -1.2,   -1.3,   -1.6,   -1.6,   -0.9,   -1.0,   -0.9,   -0.9,   -0.6,   -0.8,   -0.3,   -0.3,   -0.3,   -0.3,   -0.7,   -0.9,   -1.0,   -0.6,   -0.3,   -0.3,   -1.0,  999.0,   -0.5,   -0.4,   -0.4,   -1.0,   -0.1,   -0.1,   -0.1,   -0.2,   -0.1,   -0.0,   -0.0,    0.1,   -0.0,   -0.1,    0.1,  999.0,  999.0,  999.0,  999.0,  999.0,  999.0,  999.0,  999.0,  999.0,  999.0,  999.0,  999.0,  999.0,  999.0,  999.0,  999.0,  999.0,  999.0,  999.0,  999.0,  999.0,  999.0,  999.0,  999.0,  999.0,  999.0,  999.0,  999.0,  999.0,  999.0,  999.0,  999.0,  999.0,  999.0,  999.0,  999.0
2010/05/31 17:50,    0.1,    0.6,   -0.2,   -0.7,   -1.0,   -0.9,    0.1,    0.7,    1.4,    2.3,    1.7,    1.4,    2.0,    2.2,    2.5,    2.7,    2.4,    2.0,    1.7,    0.7,    0.1,   -0.2,   -0.3,   -0.6,   -0.7,   -0.4,   -0.6,   -0.5,   -0.4,    0.0,   -0.0,   -0.6,   -0.5,   -0.2,   -0.2,    0.4,    0.2,   -0.1,   -0.1,   -0.1,   -0.1,   -0.3,   -0.2,   -0.3,   -0.1,   -0.1,   -0.2,   -0.1,   -0.3,   -0.3,   -0.1,   -0.2,   -0.0,   -0.2,   -0.1,   -0.1,   -0.0,    0.0,   -0.1,   -0.1,   -0.1,    0.0,    0.1,  999.0,  999.0,  999.0,  999.0,  999.0,  999.0,  999.0,  999.0,  999.0,  999.0,  999.0,  999.0,  999.0,  999.0,  999.0,  999.0,  999.0,  999.0,  999.0,  999.0,  999.0,  999.0,  999.0,  999.0,  999.0,  999.0,  999.0,  999.0,  999.0,  999.0,  999.0,  999.0,  999.0,  999.0,  999.0
2010/05/31 18:00,   -0.3,   -0.9,   -0.5,   -0.6,   -0.5,    0.6,    0.8,    0.7,    1.4,    1.7,    1.1,    1.1,    1.4,    1.5,    1.6,    1.7,    2.0,    1.5,    1.5,    0.9,    0.2,    0.2,    0.3,    0.5,    0.4,    0.2,    0.3,    0.3,    0.2,    0.7,    0.5,    0.5,    0.4,    0.5,    0.8,    1.0,    1.1,    0.7,    0.1,    0.2,   -0.7,   -0.8,   -0.2,  999.0,   -0.1,  999.0,   -0.6,   -0.0,   -0.6,   -1.3,   -0.6,   -0.3,   -0.0,   -0.1,   -0.1,   -0.1,    0.0,   -0.0,   -0.0,   -0.0,   -0.1,   -0.1,   -0.0,  999.0,  999.0,  999.0,  999.0,  999.0,  999.0,  999.0,  999.0,  999.0,  999.0,  999.0,  999.0,  999.0,  999.0,  999.0,  999.0,  999.0,  999.0,  999.0,  999.0,  999.0,  999.0,  999.0,  999.0,  999.0,  999.0,  999.0,  999.0,  999.0,  999.0,  999.0,  999.0,  999.0,  999.0,  999.0
2010/05/31 18:10,  999.0,  999.0,   -0.9,  999.0,  999.0,    0.2,    0.3,    1.0,    1.9,    2.0,    1.8,    2.2,    2.2,    1.9,    2.2,    2.7,    2.7,    2.3,    1.8,    1.6,    0.9,    0.3,    0.2,    0.4,   -0.1,   -0.2,   -0.1,   -0.1,   -0.1,    0.1,    0.1,    0.6,    0.4,   -0.1,   -0.1,    0.5,    0.7,    0.3,    0.4,  999.0,  999.0,  999.0,  999.0,  999.0,   -0.1,  999.0,   -0.2,   -0.5,   -0.1,   -0.5,   -0.6,   -0.4,   -0.0,   -0.2,    0.1,    0.1,   -0.1,   -0.0,   -0.1,   -0.1,   -0.1,    0.0,   -0.2,  999.0,    0.0,  999.0,  999.0,  999.0,  999.0,  999.0,  999.0,  999.0,  999.0,  999.0,  999.0,  999.0,  999.0,  999.0,  999.0,  999.0,  999.0,  999.0,  999.0,  999.0,  999.0,  999.0,  999.0,  999.0,  999.0,  999.0,  999.0,  999.0,  999.0,  999.0,  999.0,  999.0,  999.0,  999.0
2010/05/31 18:20,    0.7,  999.0,   -0.5,   -0.4,    0.3,    1.1,    1.2,    1.3,  999.0,    1.4,    1.2,    1.3,  999.0,    0.5,  999.0,    2.2,    1.6,    2.0,    1.7,    1.1,    0.6,    0.4,   -0.0,    0.3,   -0.3,   -0.5,   -1.0,   -0.7,   -0.3,   -0.4,    0.2,    0.9,    0.4,   -0.2,   -0.7,    0.2,    0.6,    0.4,    0.2,    0.3,    0.0,   -0.3,   -0.1,   -0.1,   -0.0,  999.0,  999.0,   -0.7,   -0.2,   -0.0,   -0.3,   -0.4,   -0.0,   -0.1,   -0.0,   -0.0,   -0.1,   -0.0,   -0.0,   -0.0,   -0.2,    0.1,  999.0,  999.0,  999.0,  999.0,  999.0,  999.0,  999.0,  999.0,  999.0,  999.0,  999.0,  999.0,  999.0,  999.0,  999.0,  999.0,  999.0,  999.0,  999.0,  999.0,  999.0,  999.0,  999.0,  999.0,  999.0,  999.0,  999.0,    0.1,  999.0,  999.0,  999.0,  999.0,  999.0,  999.0,  999.0,  999.0
2010/05/31 18:30,    0.6,    0.4,   -0.2,    0.5,    0.9,    1.1,    1.8,    1.8,    1.9,    2.0,    1.4,  999.0,  999.0,  999.0,    0.9,    1.5,    1.0,    0.6,    1.0,    0.5,   -0.4,   -0.5,   -0.4,   -0.2,   -0.4,   -0.5,   -1.0,   -1.2,   -1.2,   -0.7,   -0.2,   -0.3,   -0.2,   -0.1,   -0.1,    0.3,    0.6,    0.5,    0.1,    0.0,    0.2,   -0.3,   -0.6,    0.1,   -0.1,  999.0,   -0.0,   -2.1,   -0.5,   -0.3,   -0.7,   -0.4,   -0.2,   -0.1,   -0.2,    0.0,   -0.0,   -0.2,   -0.2,    0.0,    0.0,   -0.1,  999.0,  999.0,  999.0,  999.0,  999.0,  999.0,  999.0,  999.0,  999.0,  999.0,  999.0,  999.0,  999.0,  999.0,  999.0,  999.0,  999.0,  999.0,  999.0,  999.0,  999.0,  999.0,  999.0,  999.0,  999.0,  999.0,  999.0,  999.0,  999.0,  999.0,  999.0,  999.0,  999.0,  999.0,  999.0,  999.0
2010/05/31 18:40,    0.9,    0.8,    0.9,    1.5,    2.3,    1.9,    1.9,    1.6,    2.0,    2.1,  999.0,    1.4,    1.3,    1.6,    1.2,    1.2,    1.8,    1.7,    1.3,    0.6,   -0.2,   -0.5,   -0.5,   -0.4,   -0.1,    0.5,   -0.2,   -0.6,   -0.8,   -0.3,    0.0,   -0.3,    0.3,    0.1,   -0.1,    0.1,    0.6,    0.6,    0.4,    0.2,    0.3,   -0.3,   -0.1,    0.1,    0.1,   -0.2,   -0.4,   -1.2,   -0.9,   -1.0,   -0.5,   -0.2,   -0.1,    0.0,   -0.1,   -0.0,    0.1,   -0.1,   -0.0,   -0.0,   -0.1,   -0.0,    0.1,  999.0,  999.0,  999.0,  999.0,  999.0,  999.0,  999.0,  999.0,  999.0,  999.0,  999.0,  999.0,  999.0,  999.0,  999.0,  999.0,  999.0,  999.0,  999.0,  999.0,  999.0,  999.0,   -0.1,  999.0,  999.0,  999.0,  999.0,  999.0,  999.0,  999.0,  999.0,  999.0,  999.0,  999.0,  999.0
2010/05/31 18:50,    1.0,    1.8,    2.6,    2.9,    2.5,    1.8,    1.5,    1.8,    2.3,    2.5,    3.1,    1.8,    1.8,    1.5,    1.4,    1.4,    1.7,    1.8,    1.7,    1.1,    0.4,    0.0,   -0.7,   -0.4,   -0.0,    0.1,    0.4,   -0.1,   -0.4,   -0.5,   -0.5,   -0.7,  999.0,   -1.0,   -0.9,   -0.1,    0.4,    0.5,    1.2,    1.3,    0.5,   -0.9,  999.0,   -0.0,  999.0,   -0.1,  999.0,   -3.4,  999.0,  999.0,  999.0,   -0.2,    0.0,   -0.1,    0.0,   -0.1,    0.0,   -0.1,   -0.0,   -0.0,   -0.1,   -0.1,  999.0,  999.0,  999.0,  999.0,  999.0,  999.0,  999.0,  999.0,  999.0,  999.0,  999.0,  999.0,  999.0,  999.0,  999.0,  999.0,  999.0,  999.0,  999.0,  999.0,  999.0,  999.0,  999.0,  999.0,  999.0,  999.0,  999.0,  999.0,  999.0,  999.0,  999.0,  999.0,  999.0,  999.0,  999.0,  999.0
2010/05/31 19:00,    0.9,    3.6,    4.7,  999.0,    3.1,    2.2,    1.1,    1.2,    2.0,    2.4,    2.0,    1.5,    1.6,    1.9,  999.0,    2.0,    2.3,    2.2,    1.4,    1.2,    1.1,    0.5,   -0.1,   -0.2,   -0.2,   -0.0,   -0.1,    0.1,   -0.4,   -0.9,   -0.7,   -0.7,  999.0,  999.0,   -0.6,   -0.3,    0.0,   -0.0,    1.3,    1.3,    0.3,   -0.4,   -0.5,  999.0,  999.0,  999.0,  999.0,  999.0,  999.0,    0.1,  999.0,   -0.0,  999.0,  999.0,    0.1,   -0.0,   -0.1,   -0.0,   -0.1,   -0.0,   -0.1,   -0.0,  999.0,  999.0,  999.0,  999.0,  999.0,  999.0,  999.0,  999.0,  999.0,  999.0,  999.0,  999.0,  999.0,  999.0,  999.0,  999.0,  999.0,  999.0,  999.0,  999.0,  999.0,  999.0,  999.0,  999.0,  999.0,  999.0,  999.0,  999.0,  999.0,  999.0,  999.0,  999.0,  999.0,  999.0,  999.0,  999.0
2010/05/31 19:10,  999.0,    3.1,    5.4,    3.5,    3.5,    1.9,    0.9,    0.7,    1.6,    2.0,    1.7,    1.8,    0.7,    1.1,    2.0,    1.7,    1.5,    1.8,    1.9,    1.3,    1.3,    0.8,    0.4,   -0.5,   -0.6,   -0.3,   -0.6,   -0.4,   -0.6,  999.0,   -1.1,  999.0,   -0.9,   -0.7,   -0.5,   -0.1,    0.2,    1.1,    1.9,    1.3,    1.3,    0.9,   -0.2,    0.1,  999.0,  999.0,  999.0,  999.0,  999.0,  999.0,  999.0,  999.0,  999.0,  999.0,  999.0,   -0.3,   -0.4,   -0.2,  999.0,    0.2,   -0.1,  999.0,  999.0,  999.0,  999.0,  999.0,   -0.2,  999.0,  999.0,  999.0,  999.0,  999.0,  999.0,  999.0,  999.0,  999.0,  999.0,  999.0,  999.0,  999.0,  999.0,  999.0,  999.0,  999.0,  999.0,  999.0,  999.0,  999.0,  999.0,  999.0,  999.0,  999.0,  999.0,  999.0,  999.0,  999.0,  999.0,  999.0
2010/05/31 19:20,    2.0,    3.1,    3.5,  999.0,    4.1,    2.3,    1.2,    0.4,    0.5,    0.7,    1.9,    0.9,    2.0,    1.8,    2.5,    2.2,    1.5,    1.1,    1.5,    1.3,    1.4,    1.4,    1.2,   -0.2,   -0.6,   -0.3,   -0.4,   -0.5,   -0.8,  999.0,   -0.9,   -0.7,   -0.5,  999.0,    0.5,    0.7,    1.1,    1.8,    1.9,    1.7,    1.9,    0.9,   -0.1,  999.0,    0.2,  999.0,  999.0,  999.0,  999.0,  999.0,    0.1,   -0.4,   -0.2,    0.1,  999.0,  999.0,   -0.3,  999.0,   -0.1,   -0.2,   -0.0,    0.1,  999.0,  999.0,  999.0,  999.0,  999.0,  999.0,  999.0,  999.0,  999.0,  999.0,  999.0,  999.0,  999.0,  999.0,  999.0,  999.0,  999.0,  999.0,  999.0,  999.0,  999.0,  999.0,  999.0,  999.0,  999.0,  999.0,  999.0,  999.0,  999.0,  999.0,  999.0,  999.0,  999.0,  999.0,  999.0,  999.0
2010/05/31 19:30,  999.0,  999.0,    4.5,    4.6,    3.9,    3.5,   -0.5,   -0.1,    0.3,    1.1,    1.6,    2.5,    3.0,    2.4,    2.3,    1.8,    1.0,    0.8,    0.8,    1.0,    1.4,    1.5,    1.3,    0.1,   -0.4,   -0.3,   -0.7,   -0.9,   -1.1,   -1.5,   -1.2,   -1.3,   -0.7,   -0.7,    0.2,    0.5,    1.0,    1.8,    1.4,    1.4,    1.4,    0.4,   -0.1,   -0.1,   -0.2,   -0.3,  999.0,   -0.1,   -0.7,  999.0,  999.0,   -0.1,  999.0,   -0.0,  999.0,  999.0,   -0.2,  999.0,  999.0,   -0.2,  999.0,  999.0,  999.0,  999.0,  999.0,  999.0,  999.0,  999.0,  999.0,  999.0,  999.0,  999.0,  999.0,  999.0,  999.0,  999.0,  999.0,  999.0,  999.0,  999.0,  999.0,  999.0,  999.0,  999.0,  999.0,  999.0,  999.0,  999.0,  999.0,  999.0,  999.0,  999.0,  999.0,  999.0,  999.0,  999.0,  999.0,  999.0
2010/05/31 19:40,  999.0,  999.0,  999.0,    3.1,    2.3,    0.1,   -1.2,   -0.8,   -0.3,    0.3,    1.7,    3.0,    3.1,    2.7,    2.0,    2.1,    2.0,    1.6,    1.2,    0.9,    1.1,    1.4,    1.3,   -0.0,   -0.6,   -0.0,   -0.1,   -0.3,   -0.3,   -0.3,   -0.2,   -0.0,   -0.1,    0.3,  999.0,    1.0,    1.4,    1.6,    1.7,    1.7,    2.1,    0.9,    0.2,    0.1,    0.1,   -0.1,  999.0,   -0.4,   -0.8,   -1.1,  999.0,  999.0,  999.0,  999.0,  999.0,   -0.0,  999.0,  999.0,  999.0,  999.0,  999.0,  999.0,  999.0,  999.0,  999.0,  999.0,  999.0,  999.0,  999.0,  999.0,  999.0,  999.0,  999.0,  999.0,  999.0,  999.0,  999.0,  999.0,  999.0,  999.0,  999.0,  999.0,  999.0,  999.0,  999.0,  999.0,  999.0,  999.0,  999.0,  999.0,  999.0,  999.0,  999.0,  999.0,  999.0,  999.0,  999.0,  999.0
2010/05/31 19:50,    1.1,    0.0,    1.2,    1.9,    1.0,   -1.0,   -1.5,   -0.6,    0.0,    1.2,    2.0,    2.6,    2.5,    2.5,    3.0,    3.1,    2.4,    1.8,    1.4,    1.7,    2.1,    2.3,    1.9,    1.0,    0.1,    0.1,   -0.0,   -0.1,   -0.4,   -0.7,   -0.3,   -0.7,   -0.5,   -0.1,   -0.1,    0.8,    1.4,    1.7,    1.7,    1.8,    1.9,    1.6,  999.0,    0.1,   -0.1,    0.2,  999.0,  999.0,   -0.7,   -1.5,   -0.5,   -0.6,  999.0,  999.0,  999.0,  999.0,  999.0,  999.0,  999.0,  999.0,  999.0,  999.0,  999.0,  999.0,  999.0,  999.0,  999.0,  999.0,  999.0,  999.0,  999.0,  999.0,  999.0,  999.0,  999.0,  999.0,  999.0,  999.0,  999.0,  999.0,  999.0,  999.0,  999.0,  999.0,  999.0,  999.0,  999.0,  999.0,  999.0,  999.0,  999.0,  999.0,  999.0,  999.0,  999.0,  999.0,  999.0,  999.0
2010/05/31 20:00,    0.3,   -0.5,    0.4,    1.2,    0.3,   -1.7,   -1.6,   -1.1,   -0.3,    1.0,    2.3,    2.5,    2.2,    2.9,    3.4,    2.9,    1.7,    1.5,    1.9,    2.2,    2.5,    2.0,    1.4,    0.9,    0.7,    0.6,    0.6,    0.3,   -0.3,   -0.3,   -0.5,   -0.8,   -0.7,   -0.2,  999.0,    0.7,    1.0,    0.9,    1.3,    1.4,    1.6,    1.5,    0.0,    0.2,    0.1,    0.1,  999.0,   -0.3,  999.0,   -1.3,   -1.3,  999.0,   -0.5,  999.0,  999.0,  999.0,  999.0,  999.0,  999.0,  999.0,  999.0,  999.0,  999.0,  999.0,  999.0,  999.0,  999.0,  999.0,  999.0,  999.0,  999.0,  999.0,  999.0,  999.0,  999.0,  999.0,  999.0,  999.0,  999.0,  999.0,  999.0,  999.0,  999.0,  999.0,  999.0,  999.0,  999.0,  999.0,  999.0,  999.0,  999.0,  999.0,  999.0,  999.0,  999.0,  999.0,  999.0,  999.0
2010/05/31 20:10,    0.2,   -0.3,    1.3,    1.6,   -0.0,   -1.6,   -1.3,   -1.2,   -0.6,    1.0,    2.0,    1.4,    1.9,    2.9,    2.5,    2.2,    1.8,    1.3,    1.5,    1.8,    1.9,    1.4,    1.3,    0.9,    0.6,    0.5,    0.1,   -0.3,   -0.8,   -0.8,   -1.2,   -1.7,  999.0,  999.0,    0.0,    0.9,    0.7,  999.0,    0.8,    1.2,    1.4,    1.1,    0.1,    0.4,    0.2,  999.0,  999.0,   -0.1,   -0.8,   -1.6,   -1.5,   -0.7,   -0.7,   -1.1,  999.0,  999.0,   -0.4,   -0.4,  999.0,   -0.2,  999.0,  999.0,  999.0,  999.0,  999.0,  999.0,  999.0,  999.0,  999.0,  999.0,  999.0,  999.0,  999.0,  999.0,  999.0,  999.0,  999.0,  999.0,  999.0,  999.0,  999.0,  999.0,  999.0,  999.0,  999.0,  999.0,  999.0,  999.0,  999.0,  999.0,  999.0,  999.0,  999.0,  999.0,  999.0,  999.0,  999.0,  999.0
2010/05/31 20:20,  999.0,   -0.4,    1.5,    2.1,   -0.0,   -0.9,   -1.6,   -1.1,   -1.9,    0.1,    0.1,    1.3,    1.5,    2.3,    2.8,    2.7,    2.0,    1.5,    1.7,    2.1,    2.3,    2.1,    2.0,    0.8,    0.6,    1.0,    0.1,   -0.2,  999.0,   -0.4,   -1.0,   -1.0,   -0.8,   -0.6,    0.4,    0.6,  999.0,  999.0,    1.1,    1.2,    1.5,    1.1,    0.1,  999.0,  999.0,  999.0,  999.0,  999.0,  999.0,   -0.6,  999.0,    0.1,  999.0,  999.0,  999.0,  999.0,  999.0,  999.0,  999.0,  999.0,  999.0,  999.0,  999.0,  999.0,  999.0,  999.0,  999.0,  999.0,  999.0,  999.0,  999.0,  999.0,  999.0,  999.0,  999.0,  999.0,  999.0,  999.0,  999.0,  999.0,  999.0,  999.0,  999.0,  999.0,  999.0,  999.0,  999.0,  999.0,  999.0,  999.0,  999.0,  999.0,  999.0,  999.0,  999.0,  999.0,  999.0,  999.0
2010/05/31 20:30,    0.1,    0.2,    1.0,    1.5,    0.7,   -0.8,   -1.7,   -1.3,   -0.9,   -0.8,    0.4,    1.4,    1.4,    1.8,    2.6,    3.1,    2.4,    2.0,    1.9,    2.3,    2.6,    2.4,    2.1,    1.6,    0.8,    1.0,    0.5,    0.0,   -0.2,   -0.3,   -1.1,   -1.5,   -1.2,  999.0,    0.4,    1.1,    0.6,    0.4,    1.4,    1.1,    1.3,    1.1,   -0.0,    0.1,  999.0,    0.0,    0.3,  999.0,   -0.0,   -0.4,  999.0,  999.0,   -0.4,  999.0,  999.0,  999.0,  999.0,  999.0,  999.0,  999.0,  999.0,  999.0,  999.0,  999.0,  999.0,  999.0,  999.0,  999.0,  999.0,  999.0,  999.0,  999.0,  999.0,  999.0,  999.0,  999.0,  999.0,  999.0,  999.0,  999.0,  999.0,  999.0,  999.0,  999.0,  999.0,  999.0,  999.0,  999.0,  999.0,  999.0,  999.0,  999.0,  999.0,  999.0,  999.0,  999.0,  999.0,  999.0
2010/05/31 20:40,    0.6,    0.2,    0.5,    0.5,   -0.7,   -1.6,   -2.2,   -1.5,   -1.3,   -1.1,    0.5,    1.5,    1.0,    1.2,    1.8,    2.2,    1.3,    1.3,    1.5,    1.7,    1.8,    1.9,    1.7,    0.9,    0.4,   -0.1,   -0.2,   -0.9,   -0.2,   -0.6,  999.0,  999.0,   -1.0,    0.0,    0.7,    0.9,    0.4,  999.0,    0.9,    1.0,    1.2,    1.6,   -0.2,   -0.0,  999.0,  999.0,  999.0,   -0.3,   -0.8,   -0.9,  999.0,  999.0,   -0.1,  999.0,  999.0,  999.0,  999.0,  999.0,  999.0,  999.0,  999.0,  999.0,  999.0,  999.0,  999.0,  999.0,  999.0,  999.0,  999.0,  999.0,  999.0,  999.0,  999.0,  999.0,  999.0,  999.0,  999.0,  999.0,  999.0,  999.0,  999.0,  999.0,  999.0,  999.0,  999.0,  999.0,  999.0,  999.0,  999.0,  999.0,  999.0,  999.0,  999.0,  999.0,  999.0,  999.0,  999.0,  999.0
2010/05/31 20:50,    0.4,   -0.2,   -0.1,    0.0,   -0.6,   -1.7,   -2.3,   -1.8,   -1.0,   -0.8,    1.3,    1.8,    1.7,    1.6,    1.9,    2.3,    2.1,    1.2,    1.1,    1.1,    1.3,    1.6,    1.6,    0.8,    0.2,   -0.3,   -0.4,   -0.5,   -0.8,   -1.3,   -1.8,   -1.2,   -0.3,    0.5,    1.1,    0.8,    0.6,    0.2,    0.8,    0.9,    1.2,    0.8,   -0.8,   -0.8,   -0.7,   -1.1,  999.0,   -1.0,   -1.2,   -1.3,  999.0,  999.0,  999.0,  999.0,  999.0,  999.0,  999.0,  999.0,  999.0,  999.0,  999.0,  999.0,  999.0,  999.0,  999.0,  999.0,  999.0,  999.0,  999.0,  999.0,  999.0,  999.0,  999.0,  999.0,  999.0,  999.0,  999.0,  999.0,  999.0,  999.0,  999.0,  999.0,  999.0,  999.0,  999.0,  999.0,  999.0,  999.0,  999.0,  999.0,  999.0,  999.0,  999.0,  999.0,  999.0,  999.0,  999.0,  999.0
2010/05/31 21:00,    0.1,   -0.5,   -0.3,   -0.1,   -1.3,   -2.1,   -2.0,   -1.7,   -1.0,   -0.1,    1.8,    2.5,    1.2,    1.1,    1.3,  999.0,    1.6,    0.6,    0.6,    0.8,    0.8,    1.0,    1.3,    0.9,   -0.2,   -0.4,   -0.2,   -0.1,   -0.5,   -0.5,   -0.8,   -0.5,    0.3,    0.9,    1.5,    1.8,    1.1,  999.0,    1.3,    1.2,    1.4,    1.1,   -0.7,   -0.5,  999.0,    0.1,  999.0,   -0.9,   -1.2,   -1.5,   -1.7,   -1.1,  999.0,  999.0,  999.0,  999.0,  999.0,  999.0,  999.0,   -0.9,  999.0,  999.0,  999.0,  999.0,  999.0,  999.0,  999.0,  999.0,  999.0,  999.0,  999.0,  999.0,  999.0,  999.0,  999.0,  999.0,  999.0,  999.0,  999.0,  999.0,  999.0,  999.0,  999.0,  999.0,  999.0,  999.0,  999.0,  999.0,  999.0,  999.0,  999.0,  999.0,  999.0,  999.0,  999.0,  999.0,  999.0,  999.0
2010/05/31 21:10,    0.1,   -0.7,   -0.3,   -0.1,   -0.9,   -1.2,   -1.7,   -1.4,   -0.9,    0.4,    2.9,    2.7,    1.2,    1.2,    2.2,    2.3,    1.9,    0.8,    0.9,    0.9,    0.5,    0.2,    0.2,   -0.1,   -0.3,   -0.5,   -0.7,   -0.7,   -0.3,   -0.4,   -0.4,    0.2,    0.8,    1.2,    1.9,    2.4,    1.8,    1.2,    1.5,    1.3,    1.5,    0.7,   -0.5,   -0.4,   -0.3,  999.0,   -0.7,   -1.3,   -2.1,   -2.2,   -2.1,   -1.8,   -0.5,  999.0,  999.0,   -1.4,  999.0,  999.0,  999.0,  999.0,  999.0,  999.0,  999.0,  999.0,  999.0,  999.0,  999.0,  999.0,  999.0,  999.0,  999.0,  999.0,  999.0,  999.0,  999.0,  999.0,  999.0,  999.0,  999.0,  999.0,  999.0,  999.0,  999.0,  999.0,  999.0,  999.0,  999.0,  999.0,  999.0,  999.0,  999.0,  999.0,  999.0,  999.0,  999.0,  999.0,  999.0,  999.0
2010/05/31 21:20,   -0.1,    0.1,   -0.6,   -0.1,   -1.2,   -1.5,   -1.1,   -0.8,   -0.2,    2.3,    3.0,    2.7,    1.1,    1.2,    1.8,    2.2,    1.6,    1.0,    1.2,    1.2,    1.1,    0.5,    0.3,    0.3,    0.6,    0.2,    0.0,   -0.1,    0.3,    0.6,    0.7,    1.2,    1.7,    1.9,    2.2,    2.6,  999.0,  999.0,    2.6,    2.4,    2.4,    0.5,   -0.3,    0.0,    0.2,  999.0,   -0.1,   -0.4,   -0.8,   -0.9,   -1.3,   -1.1,  999.0,  999.0,   -1.1,  999.0,  999.0,  999.0,   -0.9,  999.0,  999.0,  999.0,  999.0,  999.0,  999.0,  999.0,  999.0,  999.0,  999.0,  999.0,  999.0,  999.0,  999.0,  999.0,  999.0,  999.0,  999.0,  999.0,  999.0,  999.0,  999.0,  999.0,  999.0,  999.0,  999.0,  999.0,  999.0,  999.0,  999.0,  999.0,  999.0,  999.0,  999.0,  999.0,  999.0,  999.0,  999.0,  999.0
2010/05/31 21:30,   -0.8,   -1.2,   -1.6,   -0.0,   -0.0,   -1.0,   -1.6,   -1.9,   -0.4,    2.0,    2.8,    2.5,    0.8,    1.2,    1.7,    2.0,    1.4,    1.2,    1.1,    1.0,    1.0,    0.8,    0.7,    0.5,    0.5,    0.2,    0.6,   -0.3,   -0.3,    0.5,    0.7,    1.0,    1.5,    2.1,    2.5,    2.7,  999.0,    2.2,    2.5,    2.1,    2.2,    2.1,    0.5,    1.0,    0.2,    0.4,   -0.2,   -0.2,   -0.8,   -1.1,   -1.1,   -1.0,  999.0,  999.0,  999.0,  999.0,  999.0,  999.0,   -0.3,  999.0,  999.0,  999.0,  999.0,  999.0,  999.0,  999.0,  999.0,  999.0,  999.0,  999.0,  999.0,  999.0,  999.0,  999.0,  999.0,  999.0,  999.0,  999.0,  999.0,  999.0,  999.0,  999.0,  999.0,  999.0,  999.0,  999.0,  999.0,  999.0,  999.0,  999.0,  999.0,  999.0,  999.0,  999.0,  999.0,  999.0,  999.0,  999.0
2010/05/31 21:40,   -0.6,   -1.4,   -1.3,    0.1,    0.4,   -0.2,   -0.7,   -0.7,    0.6,    2.9,    3.0,    2.0,    1.5,    1.8,    1.7,    1.4,    1.3,    1.4,    1.4,    1.0,    0.9,    0.9,    0.8,    0.7,    0.6,    0.6,    0.6,    0.2,    0.8,    1.2,    1.1,    1.5,    2.1,    2.7,    2.8,    3.1,    3.6,    2.5,    2.7,  999.0,    2.4,    2.4,    0.7,    0.9,    0.3,   -0.2,  999.0,   -1.1,   -0.9,   -1.6,   -1.9,   -1.8,  999.0,  999.0,  999.0,  999.0,  999.0,  999.0,  999.0,  999.0,  999.0,  999.0,  999.0,  999.0,  999.0,  999.0,  999.0,  999.0,  999.0,  999.0,  999.0,  999.0,  999.0,  999.0,  999.0,  999.0,  999.0,  999.0,  999.0,  999.0,  999.0,  999.0,  999.0,  999.0,  999.0,  999.0,  999.0,  999.0,  999.0,  999.0,  999.0,  999.0,  999.0,  999.0,  999.0,  999.0,  999.0,  999.0
2010/05/31 21:50,   -0.9,   -1.5,   -0.9,   -0.1,   -0.0,   -0.7,   -1.5,   -1.2,    1.1,    2.8,    2.8,    1.7,    1.9,    2.1,    1.7,    0.8,    1.0,    1.5,    1.4,    1.3,    1.3,    0.8,    0.8,    1.0,    0.4,    0.3,    0.7,    0.5,    0.9,    1.1,    1.2,    0.6,    1.2,    2.1,    2.5,    2.5,  999.0,    2.3,    2.4,    2.0,    2.1,    1.5,    1.4,   -0.0,    0.4,  999.0,   -0.4,   -0.8,   -0.8,   -1.4,   -1.3,   -1.5,  999.0,  999.0,  999.0,  999.0,  999.0,  999.0,  999.0,  999.0,   -1.8,  999.0,  999.0,  999.0,  999.0,  999.0,  999.0,  999.0,  999.0,  999.0,  999.0,  999.0,  999.0,  999.0,  999.0,  999.0,  999.0,  999.0,  999.0,  999.0,  999.0,  999.0,  999.0,  999.0,  999.0,  999.0,  999.0,  999.0,  999.0,  999.0,  999.0,  999.0,  999.0,  999.0,  999.0,  999.0,  999.0,  999.0
2010/05/31 22:00,   -1.2,   -1.0,   -0.4,   -0.4,   -0.7,   -1.2,   -1.4,   -1.1,    0.8,    2.9,    2.3,    1.6,    2.1,    2.4,    1.5,    0.5,    0.9,    1.2,    1.1,    0.9,    0.6,    0.4,    0.4,    0.3,    0.4,    0.9,    0.9,    0.9,    0.6,    0.7,    0.9,    0.8,    0.8,    1.8,    2.7,    2.7,    2.6,    2.5,    2.6,    2.4,    1.7,    1.9,    1.8,  999.0,    0.2,  999.0,  999.0,   -0.0,   -0.5,   -0.7,   -1.1,  999.0,  999.0,  999.0,  999.0,  999.0,  999.0,   -0.0,  999.0,   -2.2,   -1.9,  999.0,  999.0,  999.0,  999.0,  999.0,  999.0,  999.0,  999.0,  999.0,  999.0,  999.0,  999.0,  999.0,  999.0,  999.0,  999.0,  999.0,  999.0,  999.0,  999.0,  999.0,  999.0,  999.0,  999.0,  999.0,  999.0,  999.0,  999.0,  999.0,  999.0,  999.0,  999.0,  999.0,  999.0,  999.0,  999.0,  999.0
2010/05/31 22:10,   -1.0,   -0.8,   -0.7,   -0.4,   -0.1,   -0.5,   -1.1,   -0.9,    0.5,    2.2,    2.4,    1.1,    1.3,    1.6,    1.2,    0.6,    0.7,    1.2,    1.4,    1.4,    1.3,    0.9,    0.8,    0.9,    1.1,    1.4,    1.5,    1.7,    1.5,    1.5,    1.6,    1.6,    1.5,    1.9,    2.8,    3.2,    3.0,  999.0,    2.6,    2.9,  999.0,    0.9,    1.4,  999.0,  999.0,   -0.1,  999.0,   -0.0,   -0.6,   -1.1,   -1.2,   -0.1,    0.0,   -0.9,   -1.5,   -0.1,  999.0,  999.0,   -0.3,  999.0,  999.0,  999.0,  999.0,  999.0,  999.0,  999.0,  999.0,  999.0,  999.0,  999.0,  999.0,  999.0,  999.0,  999.0,  999.0,  999.0,  999.0,  999.0,  999.0,  999.0,  999.0,  999.0,  999.0,  999.0,  999.0,  999.0,  999.0,  999.0,  999.0,  999.0,  999.0,  999.0,  999.0,  999.0,  999.0,  999.0,  999.0,  999.0
2010/05/31 22:20,   -0.8,   -0.6,   -0.3,    0.4,    0.4,   -0.1,   -0.1,   -1.0,    0.1,    2.6,    2.6,    1.2,    1.0,    1.5,    1.6,    0.8,    0.9,    1.0,    1.2,    0.8,    0.1,   -0.2,    0.2,    0.1,    0.1,    0.4,    0.7,    0.9,    1.0,    1.4,    1.8,    2.2,    1.6,    1.7,    2.4,    3.1,    3.1,    3.1,    3.3,    2.7,    2.7,  999.0,    2.2,  999.0,  999.0,  999.0,  999.0,    0.4,    0.1,    0.1,   -0.2,   -0.2,   -0.2,   -0.1,   -0.3,  999.0,  999.0,  999.0,  999.0,  999.0,  999.0,  999.0,  999.0,  999.0,  999.0,  999.0,  999.0,  999.0,  999.0,  999.0,  999.0,  999.0,  999.0,  999.0,  999.0,  999.0,  999.0,  999.0,  999.0,  999.0,  999.0,  999.0,  999.0,  999.0,  999.0,  999.0,  999.0,  999.0,  999.0,  999.0,  999.0,  999.0,  999.0,  999.0,  999.0,  999.0,  999.0,  999.0
2010/05/31 22:30,   -1.3,   -1.1,   -1.1,   -0.3,    0.1,   -0.3,   -0.6,   -0.6,    0.5,    2.2,    1.4,    0.4,    0.8,    1.2,    1.2,    0.8,    0.7,    1.1,    0.9,    0.1,    0.2,    0.0,   -0.4,   -0.3,   -0.1,    0.3,    0.8,    1.0,    1.2,    1.1,    1.1,    1.4,    1.5,    1.8,    2.6,    3.3,    3.3,    3.6,    3.6,    3.1,  999.0,  999.0,  999.0,  999.0,  999.0,  999.0,  999.0,  999.0,   -0.3,   -0.4,   -0.6,   -0.5,   -0.1,  999.0,  999.0,  999.0,  999.0,  999.0,  999.0,  999.0,  999.0,  999.0,  999.0,  999.0,  999.0,  999.0,  999.0,  999.0,  999.0,  999.0,  999.0,  999.0,  999.0,  999.0,  999.0,  999.0,  999.0,  999.0,  999.0,  999.0,  999.0,  999.0,  999.0,  999.0,  999.0,  999.0,  999.0,  999.0,  999.0,  999.0,  999.0,  999.0,  999.0,  999.0,  999.0,  999.0,  999.0,  999.0
2010/05/31 22:40,   -1.0,   -1.1,   -1.3,   -0.7,   -0.3,    0.1,   -0.4,   -0.5,    0.7,    1.7,    0.9,    1.1,    1.7,    1.7,    1.1,    0.6,    0.5,    0.7,    0.2,   -0.0,    0.1,    0.2,   -0.2,   -0.5,   -0.6,    0.5,    0.9,    1.0,    1.3,    1.0,    1.3,    0.9,    1.1,    1.7,    2.4,    3.1,    3.0,    3.0,    2.7,    2.3,    2.2,    2.2,  999.0,  999.0,  999.0,  999.0,  999.0,  999.0,  999.0,    0.1,   -0.2,   -0.0,  999.0,  999.0,  999.0,  999.0,  999.0,  999.0,  999.0,  999.0,  999.0,  999.0,  999.0,  999.0,  999.0,  999.0,  999.0,  999.0,  999.0,  999.0,  999.0,  999.0,  999.0,  999.0,  999.0,  999.0,  999.0,  999.0,  999.0,  999.0,  999.0,  999.0,  999.0,  999.0,  999.0,  999.0,  999.0,  999.0,  999.0,  999.0,  999.0,  999.0,  999.0,  999.0,  999.0,  999.0,  999.0,  999.0
2010/05/31 22:50,   -0.6,   -1.0,   -1.0,   -0.4,   -0.1,    0.0,   -0.5,   -0.4,    1.1,    1.1,    0.2,    0.6,    1.1,    1.6,    1.3,    0.7,    0.6,    0.3,    0.0,   -0.2,   -0.3,   -0.8,   -0.9,   -0.8,   -0.3,    0.3,    0.6,    0.8,    0.9,    0.7,  999.0,    0.9,    1.2,    2.0,    2.5,    2.8,    2.6,  999.0,  999.0,    2.1,    2.4,  999.0,  999.0,  999.0,  999.0,  999.0,  999.0,  999.0,  999.0,  999.0,  999.0,  999.0,  999.0,  999.0,  999.0,  999.0,  999.0,  999.0,  999.0,  999.0,  999.0,  999.0,  999.0,  999.0,  999.0,  999.0,  999.0,  999.0,  999.0,  999.0,  999.0,  999.0,  999.0,  999.0,  999.0,  999.0,  999.0,  999.0,  999.0,  999.0,  999.0,  999.0,  999.0,  999.0,  999.0,  999.0,  999.0,  999.0,  999.0,  999.0,  999.0,  999.0,  999.0,  999.0,  999.0,  999.0,  999.0,  999.0
2010/05/31 23:00,   -0.4,   -0.7,   -0.8,   -0.5,   -0.1,    0.1,   -0.3,   -0.5,    1.3,    1.2,    0.5,    0.8,    1.2,    1.5,    1.3,    1.3,    0.9,    0.6,   -0.0,   -0.4,   -1.1,   -1.1,   -1.0,   -0.8,   -0.3,    0.4,    0.5,    0.4,    0.5,    0.3,    0.3,    0.8,    1.3,    1.8,    1.9,    1.8,    2.3,    2.4,    1.9,    1.6,    2.0,  999.0,  999.0,  999.0,  999.0,  999.0,  999.0,  999.0,  999.0,  999.0,  999.0,  999.0,  999.0,  999.0,  999.0,  999.0,    0.0,  999.0,   -0.2,  999.0,  999.0,  999.0,  999.0,  999.0,  999.0,  999.0,  999.0,  999.0,  999.0,  999.0,  999.0,  999.0,  999.0,  999.0,  999.0,  999.0,  999.0,  999.0,  999.0,  999.0,  999.0,  999.0,  999.0,  999.0,  999.0,  999.0,  999.0,  999.0,  999.0,  999.0,  999.0,  999.0,  999.0,  999.0,  999.0,  999.0,  999.0,  999.0
2010/05/31 23:10,   -0.7,   -1.4,   -1.2,   -0.2,   -0.1,   -0.0,   -0.5,   -0.2,    0.7,    1.1,    0.6,    0.8,    1.0,    1.9,    2.3,    2.1,    1.0,    0.7,    0.0,   -0.1,   -0.6,   -0.6,   -0.1,    0.4,    0.4,    1.2,    0.9,    0.4,    0.4,    0.0,    0.3,    0.3,    1.0,    1.7,    2.3,    1.1,    2.4,    2.4,    1.8,    1.7,  999.0,  999.0,  999.0,  999.0,  999.0,  999.0,  999.0,  999.0,  999.0,  999.0,    0.1,  999.0,  999.0,  999.0,  999.0,  999.0,  999.0,  999.0,  999.0,  999.0,  999.0,  999.0,  999.0,  999.0,  999.0,  999.0,  999.0,  999.0,  999.0,  999.0,  999.0,  999.0,  999.0,  999.0,  999.0,  999.0,  999.0,  999.0,  999.0,  999.0,  999.0,  999.0,  999.0,  999.0,  999.0,  999.0,  999.0,  999.0,  999.0,  999.0,  999.0,  999.0,  999.0,  999.0,  999.0,  999.0,  999.0,  999.0
